CW3318 Weather Reports


Display with metric or nautical units.
time (UTC)temp
F
wind
direction
speed
MPH
gust
MPH
rain 1hr
in
rain 24hr
in
rain mn
in
humidity
%
barometer
mb
20260509113044 42 88 4.0 7.0 0.00 0.00 0.00 74 1015.4
20260509112919 42 77 4.0 6.0 0.00 0.00 0.00 74 1015.4
20260509112824 42 77 4.0 6.0 0.00 0.00 0.00 74 1015.4
20260509112722 43 73 4.0 5.0 0.00 0.00 0.00 74 1015.4
20260509112645 43 70 4.0 5.0 0.00 0.00 0.00 74 1015.4
20260509112549 43 68 4.0 5.0 0.00 0.00 0.00 74 1015.4
20260509112445 43 66 4.0 5.0 0.00 0.00 0.00 74 1015.4
20260509112328 43 65 3.0 5.0 0.00 0.00 0.00 74 1015.4
20260509112234 43 60 2.0 4.0 0.00 0.00 0.00 74 1015.4
20260509112156 43 60 1.0 4.0 0.00 0.00 0.00 74 1015.4
20260509112039 43 60 1.0 4.0 0.00 0.00 0.00 74 1015.4
20260509111944 43 60 1.0 4.0 0.00 0.00 0.00 74 1015.4
20260509111821 43 60 1.0 4.0 0.00 0.00 0.00 74 1015.4
20260509111719 43 60 2.0 4.0 0.00 0.00 0.00 74 1015.4
20260509111643 43 60 2.0 4.0 0.00 0.00 0.00 74 1015.4
20260509111518 44 60 3.0 4.0 0.00 0.00 0.00 73 1015.4
20260509111427 44 60 2.0 3.0 0.00 0.00 0.00 73 1015.4
20260509111323 44 60 1.0 3.0 0.00 0.00 0.00 73 1015.4
20260509111229 44 60 0.0 1.0 0.00 0.00 0.00 73 1015.4
20260509111128 44 60 0.0 0.0 0.00 0.00 0.00 73 1015.5
20260509111052 44 60 0.0 0.0 0.00 0.00 0.00 73 1015.5
20260509110957 44 60 0.0 0.0 0.00 0.00 0.00 73 1015.5
20260509110833 44 60 0.0 0.0 0.00 0.00 0.00 73 1015.5
20260509110739 44 60 0.0 0.0 0.00 0.00 0.00 73 1015.4
20260509110618 44 60 0.0 0.0 0.00 0.00 0.00 73 1015.4
20260509110544 44 60 0.0 0.0 0.00 0.00 0.00 73 1015.4
20260509110421 44 60 0.0 0.0 0.00 0.00 0.00 73 1015.4
20260509110345 44 60 0.0 0.0 0.00 0.00 0.00 73 1015.4
20260509110222 45 60 0.0 0.0 0.00 0.00 0.00 73 1015.4
20260509110150 45 60 0.0 0.0 0.00 0.00 0.00 73 1015.4
20260509110032 45 60 0.0 0.0 0.00 0.00 0.00 73 1015.4
20260509105927 45 60 0.0 2.0 0.00 0.00 0.00 73 1015.4
20260509105852 45 60 0.0 3.0 0.00 0.00 0.00 73 1015.4
20260509105739 45 60 0.0 3.0 0.00 0.00 0.00 73 1015.4
20260509105708 45 60 0.0 3.0 0.00 0.00 0.00 72 1015.4
20260509105521 45 60 0.0 3.0 0.00 0.00 0.00 72 1015.4
20260509105418 45 60 0.0 3.0 0.00 0.00 0.00 72 1015.4
20260509105344 45 60 0.0 3.0 0.00 0.00 0.00 73 1015.4
20260509105218 45 60 1.0 3.0 0.00 0.00 0.00 73 1015.4
20260509105145 45 60 1.0 3.0 0.00 0.00 0.00 73 1015.4
20260509105025 45 60 2.0 3.0 0.00 0.00 0.00 73 1015.4
20260509104950 45 60 2.0 3.0 0.00 0.00 0.00 73 1015.4
20260509104846 45 60 0.0 3.0 0.00 0.00 0.00 73 1015.5
20260509104730 45 60 0.0 0.0 0.00 0.00 0.00 73 1015.5
20260509104623 45 60 0.0 2.0 0.00 0.00 0.00 73 1015.5
20260509104529 45 60 0.0 3.0 0.00 0.00 0.00 73 1015.5
20260509104423 46 60 0.0 3.0 0.00 0.00 0.00 74 1015.5
20260509104329 46 60 0.0 4.0 0.00 0.00 0.00 74 1015.5
20260509104230 46 60 0.0 4.0 0.00 0.00 0.00 74 1015.4
20260509104137 46 60 0.0 4.0 0.00 0.00 0.00 74 1015.5
20260509104059 46 60 0.0 4.0 0.00 0.00 0.00 74 1015.5
20260509103936 46 60 1.0 4.0 0.00 0.00 0.00 75 1015.5
20260509103843 46 60 1.0 4.0 0.00 0.00 0.00 75 1015.4
20260509103722 46 60 2.0 4.0 0.00 0.00 0.00 75 1015.4
20260509103618 46 60 3.0 4.0 0.00 0.00 0.00 75 1015.4
20260509103546 46 60 3.0 4.0 0.00 0.00 0.00 75 1015.4
20260509103423 46 60 3.0 4.0 0.00 0.00 0.00 75 1015.4
20260509103348 46 60 3.0 4.0 0.00 0.00 0.00 75 1015.4
20260509103222 46 60 3.0 4.0 0.00 0.00 0.00 75 1015.5
20260509103131 46 60 3.0 4.0 0.00 0.00 0.00 75 1015.5
20260509103025 46 60 3.0 4.0 0.00 0.00 0.00 75 1015.5
20260509102931 46 60 3.0 3.0 0.00 0.00 0.00 75 1015.5
20260509102833 46 60 2.0 3.0 0.00 0.00 0.00 75 1015.5
20260509102757 46 60 1.0 3.0 0.00 0.00 0.00 75 1015.5
20260509102634 46 60 0.0 2.0 0.00 0.00 0.00 75 1015.5
20260509102539 46 60 0.0 3.0 0.00 0.00 0.00 74 1015.6
20260509102436 46 60 0.0 4.0 0.00 0.00 0.00 74 1015.5
20260509102340 46 60 0.0 4.0 0.00 0.00 0.00 74 1015.5
20260509102238 46 60 0.0 4.0 0.00 0.00 0.00 74 1015.5
20260509102144 46 60 0.0 4.0 0.00 0.00 0.00 74 1015.5
20260509102020 46 60 1.0 5.0 0.00 0.00 0.00 73 1015.5
20260509101947 46 60 2.0 5.0 0.00 0.00 0.00 73 1015.5
20260509101820 46 60 2.0 5.0 0.00 0.00 0.00 73 1015.6
20260509101726 46 60 3.0 5.0 0.00 0.00 0.00 73 1015.6
20260509101622 46 60 3.0 5.0 0.00 0.00 0.00 72 1015.6
20260509101529 46 60 3.0 5.0 0.00 0.00 0.00 72 1015.6
20260509101426 46 60 4.0 5.0 0.00 0.00 0.00 72 1015.7
20260509101336 46 60 4.0 5.0 0.00 0.00 0.00 72 1015.7
20260509101232 46 60 4.0 5.0 0.00 0.00 0.00 72 1015.7
20260509101130 47 60 4.0 5.0 0.00 0.00 0.00 72 1015.7
20260509101034 47 60 3.0 5.0 0.00 0.00 0.00 72 1015.7
20260509100929 47 56 1.0 4.0 0.00 0.00 0.00 72 1015.6
20260509100833 47 54 0.0 0.0 0.00 0.00 0.00 72 1015.6
20260509100733 47 53 0.0 0.0 0.00 0.00 0.00 72 1015.7
20260509100643 47 53 0.0 0.0 0.00 0.00 0.00 72 1015.7
20260509100536 47 53 0.0 0.0 0.00 0.00 0.00 72 1015.7
20260509100434 47 53 0.0 0.0 0.00 0.00 0.00 72 1015.7
20260509100340 47 53 0.0 1.0 0.00 0.00 0.00 71 1015.7
20260509100239 47 53 0.0 1.0 0.00 0.00 0.00 71 1015.8
20260509100116 47 53 0.0 2.0 0.00 0.00 0.00 71 1015.8
20260509100022 47 53 0.0 3.0 0.00 0.00 0.00 71 1015.8
20260509095917 48 53 0.0 3.0 0.00 0.00 0.00 71 1015.9
20260509095842 48 53 0.0 3.0 0.00 0.00 0.00 71 1015.9
20260509095719 48 53 0.0 3.0 0.00 0.00 0.00 71 1015.9
20260509095646 48 53 0.0 3.0 0.00 0.00 0.00 71 1015.9
20260509095522 48 53 0.0 3.0 0.00 0.00 0.00 70 1015.9
20260509095449 48 53 1.0 3.0 0.00 0.00 0.00 70 1015.9
20260509095344 48 53 1.0 3.0 0.00 0.00 0.00 71 1015.9
20260509095249 48 53 1.0 3.0 0.00 0.00 0.00 70 1015.9
20260509095137 48 53 0.0 2.0 0.00 0.00 0.00 70 1015.8
20260509095050 48 53 0.0 1.0 0.00 0.00 0.00 70 1015.9
20260509094935 48 53 0.0 1.0 0.00 0.00 0.00 70 1015.9
20260509094852 48 53 0.0 1.0 0.00 0.00 0.00 70 1015.9
20260509094735 48 53 0.0 1.0 0.00 0.00 0.00 70 1015.8
20260509094643 48 53 0.0 1.0 0.00 0.00 0.00 70 1015.8
20260509094522 48 53 0.0 1.0 0.00 0.00 0.00 70 1015.8
20260509094419 48 53 0.0 1.0 0.00 0.00 0.00 70 1015.8
20260509094325 48 53 0.0 1.0 0.00 0.00 0.00 70 1015.8
20260509094223 48 53 0.0 1.0 0.00 0.00 0.00 70 1015.8
20260509094117 49 53 0.0 1.0 0.00 0.00 0.00 70 1015.8
20260509094023 49 53 0.0 1.0 0.00 0.00 0.00 70 1015.8
20260509093929 49 53 0.0 1.0 0.00 0.00 0.00 70 1015.8
20260509093830 49 53 0.0 1.0 0.00 0.00 0.00 70 1015.9
20260509093727 49 53 0.0 1.0 0.00 0.00 0.00 70 1015.8
20260509093635 49 53 0.0 1.0 0.00 0.00 0.00 70 1015.8
20260509093529 49 53 0.0 0.0 0.00 0.00 0.00 70 1015.9
20260509093435 49 53 0.0 0.0 0.00 0.00 0.00 70 1015.9
20260509093333 49 53 0.0 0.0 0.00 0.00 0.00 70 1015.8
20260509093245 49 53 0.0 0.0 0.00 0.00 0.00 70 1015.9
20260509093119 49 53 0.0 0.0 0.00 0.00 0.00 70 1015.8
20260509093036 49 53 0.0 0.0 0.00 0.00 0.00 70 1015.8
20260509092941 49 53 0.0 0.0 0.00 0.00 0.00 70 1015.8
20260509092816 49 53 0.0 0.0 0.00 0.00 0.00 70 1015.8
20260509092724 49 53 0.0 0.0 0.00 0.00 0.00 70 1015.8
20260509092618 49 53 0.0 0.0 0.00 0.00 0.00 70 1015.9
20260509092527 49 53 0.0 0.0 0.00 0.00 0.00 70 1015.9
20260509092425 49 53 0.0 0.0 0.00 0.00 0.00 70 1015.8
20260509092331 49 53 0.0 0.0 0.00 0.00 0.00 70 1015.8
20260509092249 49 53 0.0 0.0 0.00 0.00 0.00 70 1015.9
20260509092135 49 53 0.0 0.0 0.00 0.00 0.00 70 1015.8
20260509092030 49 53 0.0 0.0 0.00 0.00 0.00 70 1015.8
20260509091955 49 53 0.0 1.0 0.00 0.00 0.00 70 1015.8
20260509091830 49 53 0.0 1.0 0.00 0.00 0.00 69 1015.7
20260509091739 49 53 0.0 1.0 0.00 0.00 0.00 69 1015.8
20260509091708 49 53 0.0 1.0 0.00 0.00 0.00 69 1015.8
20260509091523 49 53 0.0 1.0 0.00 0.00 0.00 69 1015.8
20260509091421 49 53 0.0 1.0 0.00 0.00 0.00 69 1015.8
20260509091327 49 53 0.0 1.0 0.00 0.00 0.00 69 1015.8
20260509091244 49 53 0.0 1.0 0.00 0.00 0.00 69 1015.9
20260509091131 49 53 0.0 2.0 0.00 0.00 0.00 69 1015.9
20260509091030 49 53 0.0 2.0 0.00 0.00 0.00 69 1015.9
20260509090937 49 53 1.0 2.0 0.00 0.00 0.00 69 1015.9
20260509090834 49 53 1.0 2.0 0.00 0.00 0.00 69 1015.9
20260509090740 49 53 1.0 2.0 0.00 0.00 0.00 69 1015.9
20260509090658 50 53 0.0 2.0 0.00 0.00 0.00 69 1015.9
20260509090541 50 53 0.0 2.0 0.00 0.00 0.00 68 1016.0
20260509090421 50 53 1.0 2.0 0.00 0.00 0.00 68 1016.0
20260509090317 50 53 1.0 2.0 0.00 0.00 0.00 68 1016.0
20260509090226 50 53 1.0 2.0 0.00 0.00 0.00 68 1016.0
20260509090121 50 53 1.0 2.0 0.00 0.00 0.00 68 1016.0
20260509090028 50 53 1.0 2.0 0.00 0.00 0.00 68 1016.0
20260509085924 50 53 1.0 2.0 0.00 0.00 0.00 68 1016.0
20260509085821 50 53 0.0 2.0 0.00 0.00 0.00 68 1016.0
20260509085733 50 53 0.0 0.0 0.00 0.00 0.00 68 1016.0
20260509085631 50 53 0.0 0.0 0.00 0.00 0.00 68 1016.0
20260509085535 50 53 0.0 0.0 0.00 0.00 0.00 68 1016.1
20260509085431 50 53 0.0 0.0 0.00 0.00 0.00 68 1016.0
20260509085327 50 53 0.0 0.0 0.00 0.00 0.00 68 1016.0
20260509085232 50 53 0.0 0.0 0.00 0.00 0.00 68 1016.1
20260509085135 50 53 0.0 0.0 0.00 0.00 0.00 68 1016.0
20260509085041 50 53 0.0 0.0 0.00 0.00 0.00 68 1016.0
20260509085006 50 53 0.0 0.0 0.00 0.00 0.00 68 1016.0
20260509084821 50 53 0.0 0.0 0.00 0.00 0.00 68 1016.0
20260509084717 50 53 0.0 1.0 0.00 0.00 0.00 68 1016.1
20260509084646 50 53 0.0 1.0 0.00 0.00 0.00 68 1016.1
20260509084522 50 53 0.0 2.0 0.00 0.00 0.00 68 1016.0
20260509084425 50 53 0.0 2.0 0.00 0.00 0.00 68 1016.0
20260509084321 50 53 0.0 2.0 0.00 0.00 0.00 68 1016.1
20260509084225 50 53 0.0 2.0 0.00 0.00 0.00 67 1016.1
20260509084121 50 53 0.0 3.0 0.00 0.00 0.00 67 1016.1
20260509084018 50 53 0.0 3.0 0.00 0.00 0.00 67 1016.2
20260509083923 50 53 0.0 3.0 0.00 0.00 0.00 67 1016.1
20260509083820 50 53 1.0 3.0 0.00 0.00 0.00 67 1016.1
20260509083730 50 53 1.0 3.0 0.00 0.00 0.00 67 1016.1
20260509083649 50 53 2.0 3.0 0.00 0.00 0.00 67 1016.1
20260509083533 50 53 2.0 3.0 0.00 0.00 0.00 67 1016.1
20260509083428 50 53 2.0 3.0 0.00 0.00 0.00 67 1016.2
20260509083353 50 53 2.0 3.0 0.00 0.00 0.00 67 1016.2
20260509083228 50 53 2.0 3.0 0.00 0.00 0.00 67 1016.1
20260509083136 50 53 1.0 2.0 0.00 0.00 0.00 67 1016.2
20260509083040 50 53 1.0 2.0 0.00 0.00 0.00 66 1016.1
20260509082921 51 53 1.0 2.0 0.00 0.00 0.00 66 1016.1
20260509082817 51 53 1.0 2.0 0.00 0.00 0.00 66 1016.1
20260509082723 51 53 0.0 2.0 0.00 0.00 0.00 66 1016.1
20260509082650 51 53 0.0 4.0 0.00 0.00 0.00 66 1016.1
20260509082524 51 53 0.0 4.0 0.00 0.00 0.00 66 1016.1
20260509082419 51 53 0.0 4.0 0.00 0.00 0.00 66 1016.1
20260509082326 51 53 0.0 4.0 0.00 0.00 0.00 66 1016.1
20260509082255 51 53 1.0 4.0 0.00 0.00 0.00 66 1016.2
20260509082132 51 53 1.0 4.0 0.00 0.00 0.00 66 1016.1
20260509082027 51 53 2.0 4.0 0.00 0.00 0.00 66 1016.2
20260509081951 51 53 2.0 4.0 0.00 0.00 0.00 66 1016.2
20260509081835 51 53 2.0 4.0 0.00 0.00 0.00 66 1016.2
20260509081731 51 53 2.0 4.0 0.00 0.00 0.00 66 1016.2
20260509081639 51 53 1.0 2.0 0.00 0.00 0.00 66 1016.1
20260509081535 51 53 0.0 3.0 0.00 0.00 0.00 66 1016.2
20260509081432 51 53 0.0 3.0 0.00 0.00 0.00 66 1016.1
20260509081317 51 53 0.0 3.0 0.00 0.00 0.00 66 1016.1
20260509081244 51 53 1.0 3.0 0.00 0.00 0.00 66 1016.1
20260509081116 51 53 0.0 3.0 0.00 0.00 0.00 66 1016.1
20260509081043 51 53 0.0 3.0 0.00 0.00 0.00 66 1016.1
20260509080947 51 53 0.0 3.0 0.00 0.00 0.00 66 1016.1
20260509080842 51 53 1.0 5.0 0.00 0.00 0.00 66 1016.0
20260509080722 51 53 2.0 5.0 0.00 0.00 0.00 66 1016.1
20260509080630 51 53 1.0 5.0 0.00 0.00 0.00 66 1016.1
20260509080525 51 53 0.0 5.0 0.00 0.00 0.00 66 1016.0
20260509080431 51 53 0.0 5.0 0.00 0.00 0.00 66 1016.0
20260509080328 51 53 0.0 5.0 0.00 0.00 0.00 66 1016.0
20260509080221 51 53 1.0 5.0 0.00 0.00 0.00 66 1016.0
20260509080124 51 53 2.0 5.0 0.00 0.00 0.00 66 1016.0
20260509080054 51 53 3.0 5.0 0.00 0.00 0.00 66 1016.0
20260509075929 51 53 3.0 7.0 0.00 0.00 0.00 66 1016.0
20260509075827 51 53 2.0 7.0 0.00 0.00 0.00 66 1016.0
20260509075733 51 53 2.0 7.0 0.00 0.00 0.00 66 1016.0
20260509075633 51 53 3.0 7.0 0.00 0.00 0.00 66 1016.0
20260509075537 51 53 3.0 7.0 0.00 0.00 0.00 66 1015.9
20260509075417 51 53 2.0 7.0 0.00 0.00 0.00 66 1016.0
20260509075344 51 53 2.0 7.0 0.00 0.00 0.00 66 1016.0
20260509075222 51 53 4.0 7.0 0.00 0.00 0.00 66 1015.9
20260509075138 51 53 4.0 7.0 0.00 0.00 0.00 66 1015.9
20260509075040 51 52 3.0 7.0 0.00 0.00 0.00 66 1015.9
20260509074917 51 52 3.0 8.0 0.00 0.00 0.00 66 1015.9
20260509074842 51 52 3.0 8.0 0.00 0.00 0.00 66 1015.9
20260509074743 51 48 3.0 8.0 0.00 0.00 0.00 66 1015.9
20260509074631 51 48 4.0 8.0 0.00 0.00 0.00 66 1015.9
20260509074526 51 46 4.0 6.0 0.00 0.00 0.00 65 1015.9
20260509074423 51 48 4.0 6.0 0.00 0.00 0.00 65 1016.0
20260509074329 51 49 3.0 6.0 0.00 0.00 0.00 65 1016.0
20260509074253 51 49 3.0 6.0 0.00 0.00 0.00 65 1015.9
20260509074151 51 50 3.0 6.0 0.00 0.00 0.00 65 1015.9
20260509074034 51 50 3.0 7.0 0.00 0.00 0.00 65 1015.9
20260509074004 51 49 3.0 7.0 0.00 0.00 0.00 65 1015.9
20260509073820 51 49 3.0 7.0 0.00 0.00 0.00 65 1015.9
20260509073747 51 49 3.0 7.0 0.00 0.00 0.00 65 1015.9
20260509073620 51 63 3.0 7.0 0.00 0.00 0.00 64 1015.9
20260509073517 51 63 4.0 7.0 0.00 0.00 0.00 64 1015.9
20260509073442 52 65 4.0 7.0 0.00 0.00 0.00 64 1015.9
20260509073319 52 60 4.0 7.0 0.00 0.00 0.00 64 1015.9
20260509073229 52 57 4.0 7.0 0.00 0.00 0.00 64 1015.9
20260509073129 52 59 4.0 7.0 0.00 0.00 0.00 64 1015.9
20260509073031 52 60 4.0 7.0 0.00 0.00 0.00 64 1015.9
20260509072957 52 61 5.0 7.0 0.00 0.00 0.00 63 1016.0
20260509072839 52 62 4.0 7.0 0.00 0.00 0.00 63 1015.9
20260509072716 52 52 4.0 7.0 0.00 0.00 0.00 63 1015.9
20260509072643 52 52 5.0 8.0 0.00 0.00 0.00 63 1015.9
20260509072518 52 38 5.0 8.0 0.00 0.00 0.00 63 1015.9
20260509072419 52 127 4.0 8.0 0.00 0.00 0.00 62 1015.9
20260509072344 52 128 4.0 8.0 0.00 0.00 0.00 62 1015.9
20260509072223 52 140 4.0 7.0 0.00 0.00 0.00 62 1015.9
20260509072119 52 146 4.0 7.0 0.00 0.00 0.00 62 1015.8
20260509072025 52 146 4.0 7.0 0.00 0.00 0.00 62 1015.8
20260509071921 52 146 4.0 7.0 0.00 0.00 0.00 62 1015.9
20260509071845 52 147 4.0 7.0 0.00 0.00 0.00 61 1015.8
20260509071725 53 148 4.0 7.0 0.00 0.00 0.00 61 1015.8
20260509071632 53 159 3.0 6.0 0.00 0.00 0.00 61 1015.8
20260509071528 53 163 3.0 6.0 0.00 0.00 0.00 61 1015.8
20260509071433 53 163 3.0 6.0 0.00 0.00 0.00 61 1015.8
20260509071331 53 163 3.0 6.0 0.00 0.00 0.00 61 1015.8
20260509071228 53 163 3.0 6.0 0.00 0.00 0.00 61 1015.8
20260509071133 53 163 3.0 6.0 0.00 0.00 0.00 61 1015.8
20260509071041 53 163 3.0 6.0 0.00 0.00 0.00 61 1015.8
20260509070917 53 163 4.0 6.0 0.00 0.00 0.00 61 1015.8
20260509070834 53 178 3.0 5.0 0.00 0.00 0.00 61 1015.8
20260509070720 53 179 2.0 4.0 0.00 0.00 0.00 60 1015.8
20260509070638 53 179 2.0 4.0 0.00 0.00 0.00 60 1015.8
20260509070541 53 179 2.0 4.0 0.00 0.00 0.00 60 1015.7
20260509070446 53 179 2.0 3.0 0.00 0.00 0.00 60 1015.7
20260509070325 53 179 2.0 3.0 0.00 0.00 0.00 60 1015.7
20260509070231 54 179 2.0 4.0 0.00 0.00 0.00 60 1015.7
20260509070129 54 179 2.0 4.0 0.00 0.00 0.00 60 1015.7
20260509070023 54 179 2.0 4.0 0.00 0.00 0.00 60 1015.7
20260509065928 54 179 2.0 4.0 0.00 0.00 0.00 60 1015.7
20260509065824 54 179 3.0 4.0 0.00 0.00 0.00 60 1015.6
20260509065733 54 179 3.0 4.0 0.00 0.00 0.00 59 1015.6
20260509065632 54 179 3.0 4.0 0.00 0.00 0.00 59 1015.6
20260509065535 54 179 3.0 4.0 0.00 0.00 0.00 59 1015.6
20260509065452 54 179 3.0 5.0 0.00 0.00 0.00 59 1015.6
20260509065356 54 179 2.0 4.0 0.00 0.00 0.00 59 1015.6
20260509065243 54 179 2.0 4.0 0.00 0.00 0.00 59 1015.6
20260509065138 54 179 2.0 3.0 0.00 0.00 0.00 59 1015.6
20260509065042 54 179 2.0 3.0 0.00 0.00 0.00 59 1015.6
20260509064943 54 179 2.0 4.0 0.00 0.00 0.00 59 1015.6
20260509064747 54 179 2.0 4.0 0.00 0.00 0.00 59 1015.5
20260509064622 54 179 2.0 4.0 0.00 0.00 0.00 59 1015.5
20260509064528 54 179 2.0 4.0 0.00 0.00 0.00 59 1015.5
20260509064445 55 179 2.0 4.0 0.00 0.00 0.00 58 1015.6
20260509064328 55 179 2.0 4.0 0.00 0.00 0.00 58 1015.6
20260509064253 55 179 3.0 4.0 0.00 0.00 0.00 58 1015.5
20260509064131 55 179 3.0 4.0 0.00 0.00 0.00 58 1015.6
20260509064039 55 179 2.0 4.0 0.00 0.00 0.00 59 1015.5
20260509063917 55 180 0.0 1.0 0.00 0.00 0.00 59 1015.5
20260509063842 55 180 0.0 0.0 0.00 0.00 0.00 59 1015.5
20260509063737 55 180 0.0 1.0 0.00 0.00 0.00 59 1015.5
20260509063706 55 180 0.0 1.0 0.00 0.00 0.00 59 1015.5
20260509063519 55 180 0.0 1.0 0.00 0.00 0.00 59 1015.5
20260509063425 55 180 0.0 1.0 0.00 0.00 0.00 59 1015.5
20260509063341 55 180 0.0 1.0 0.00 0.00 0.00 59 1015.5
20260509063229 55 180 0.0 1.0 0.00 0.00 0.00 59 1015.5
20260509063128 55 180 0.0 1.0 0.00 0.00 0.00 59 1015.5
20260509063031 55 180 0.0 1.0 0.00 0.00 0.00 59 1015.5
20260509062928 55 180 0.0 1.0 0.00 0.00 0.00 59 1015.5
20260509062834 55 180 0.0 1.0 0.00 0.00 0.00 59 1015.5
20260509062729 55 180 0.0 1.0 0.00 0.00 0.00 58 1015.5
20260509062630 55 180 0.0 1.0 0.00 0.00 0.00 58 1015.5
20260509062535 55 180 0.0 1.0 0.00 0.00 0.00 58 1015.5
20260509062439 55 180 0.0 1.0 0.00 0.00 0.00 58 1015.5
20260509062335 55 180 0.0 3.0 0.00 0.00 0.00 58 1015.5
20260509062233 55 180 0.0 3.0 0.00 0.00 0.00 58 1015.5
20260509062117 55 180 1.0 3.0 0.00 0.00 0.00 58 1015.5
20260509062032 55 180 0.0 3.0 0.00 0.00 0.00 58 1015.5
20260509061943 55 180 0.0 3.0 0.00 0.00 0.00 58 1015.5
20260509061819 55 180 0.0 3.0 0.00 0.00 0.00 57 1015.5
20260509061746 55 180 0.0 3.0 0.00 0.00 0.00 57 1015.5
20260509061622 55 180 1.0 3.0 0.00 0.00 0.00 57 1015.5
20260509061528 55 180 1.0 3.0 0.00 0.00 0.00 57 1015.5
20260509061423 55 180 2.0 3.0 0.00 0.00 0.00 57 1015.5
20260509061319 55 180 2.0 4.0 0.00 0.00 0.00 57 1015.4
20260509061248 55 180 1.0 3.0 0.00 0.00 0.00 57 1015.4
20260509061135 55 180 1.0 3.0 0.00 0.00 0.00 56 1015.4
20260509061030 55 180 2.0 3.0 0.00 0.00 0.00 57 1015.4
20260509060957 55 180 2.0 3.0 0.00 0.00 0.00 57 1015.4
20260509060901 55 180 2.0 3.0 0.00 0.00 0.00 56 1015.4
20260509060736 55 180 1.0 4.0 0.00 0.00 0.00 57 1015.4
20260509060634 55 180 0.0 3.0 0.00 0.00 0.00 57 1015.4
20260509060522 55 180 0.0 5.0 0.00 0.00 0.00 57 1015.4
20260509060418 55 180 1.0 6.0 0.00 0.00 0.00 57 1015.4
20260509060324 55 180 2.0 6.0 0.00 0.00 0.00 58 1015.4
20260509060223 55 180 2.0 6.0 0.00 0.00 0.00 58 1015.4
20260509060124 55 180 2.0 6.0 0.00 0.00 0.00 58 1015.5
20260509060022 55 180 1.0 6.0 0.00 0.00 0.00 58 1015.4
20260509055947 55 180 1.0 6.0 0.00 0.00 0.00 58 1015.4
20260509055823 55 180 3.0 6.0 0.00 0.00 0.00 58 1015.3
20260509055733 55 180 4.0 6.0 0.00 0.00 0.00 57 1015.3
20260509055631 55 180 4.0 6.0 0.00 0.00 0.00 56 1015.3
20260509055554 55 180 4.0 7.0 0.00 0.00 0.00 56 1015.4
20260509055439 55 202 4.0 5.0 0.00 0.00 0.00 56 1015.4
20260509055355 55 206 3.0 5.0 0.00 0.00 0.00 56 1015.4
20260509055239 55 210 2.0 5.0 0.00 0.00 0.00 56 1015.4
20260509055137 55 210 2.0 5.0 0.00 0.00 0.00 56 1015.4
20260509055041 55 210 2.0 5.0 0.00 0.00 0.00 56 1015.4
20260509054919 55 210 2.0 5.0 0.00 0.00 0.00 56 1015.4
20260509054825 55 210 2.0 5.0 0.00 0.00 0.00 56 1015.2
20260509054742 55 210 2.0 5.0 0.00 0.00 0.00 56 1015.2
20260509054645 55 210 3.0 5.0 0.00 0.00 0.00 56 1015.2
20260509054549 55 210 3.0 5.0 0.00 0.00 0.00 56 1015.2
20260509054425 55 210 3.0 5.0 0.00 0.00 0.00 56 1015.2
20260509054329 56 215 3.0 4.0 0.00 0.00 0.00 56 1015.2
20260509054255 56 271 3.0 4.0 0.00 0.00 0.00 55 1015.2
20260509054133 56 276 3.0 4.0 0.00 0.00 0.00 55 1015.2
20260509054040 56 277 2.0 4.0 0.00 0.00 0.00 55 1015.3
20260509053918 56 277 2.0 3.0 0.00 0.00 0.00 55 1015.2
20260509053844 56 278 2.0 3.0 0.00 0.00 0.00 55 1015.2
20260509053742 56 278 2.0 3.0 0.00 0.00 0.00 55 1015.2
20260509053628 56 279 2.0 3.0 0.00 0.00 0.00 55 1015.2
20260509053519 56 280 1.0 3.0 0.00 0.00 0.00 54 1015.2
20260509053419 56 280 1.0 3.0 0.00 0.00 0.00 54 1015.2
20260509053325 56 280 1.0 3.0 0.00 0.00 0.00 54 1015.2
20260509053222 56 280 1.0 4.0 0.00 0.00 0.00 54 1015.2
20260509053125 56 280 0.0 4.0 0.00 0.00 0.00 54 1015.2
20260509053022 56 280 0.0 4.0 0.00 0.00 0.00 54 1015.2
20260509052928 56 280 1.0 4.0 0.00 0.00 0.00 54 1015.2
20260509052853 56 280 1.0 4.0 0.00 0.00 0.00 54 1015.2
20260509052729 57 280 2.0 4.0 0.00 0.00 0.00 54 1015.1
20260509052639 57 280 2.0 4.0 0.00 0.00 0.00 54 1015.1
20260509052554 57 280 3.0 4.0 0.00 0.00 0.00 54 1015.1
20260509052440 57 280 3.0 4.0 0.00 0.00 0.00 55 1015.1
20260509052336 57 280 2.0 4.0 0.00 0.00 0.00 54 1015.1
20260509052244 57 279 2.0 4.0 0.00 0.00 0.00 54 1015.2
20260509052120 57 279 2.0 4.0 0.00 0.00 0.00 54 1015.2
20260509052021 57 279 1.0 2.0 0.00 0.00 0.00 54 1015.2
20260509051946 57 279 1.0 2.0 0.00 0.00 0.00 54 1015.2
20260509051823 57 279 1.0 2.0 0.00 0.00 0.00 54 1015.2
20260509051729 57 279 1.0 2.0 0.00 0.00 0.00 54 1015.2
20260509051624 57 279 0.0 2.0 0.00 0.00 0.00 54 1015.1
20260509051530 57 279 0.0 2.0 0.00 0.00 0.00 54 1015.1
20260509051427 57 279 1.0 2.0 0.00 0.00 0.00 54 1015.2
20260509051328 57 279 1.0 2.0 0.00 0.00 0.00 54 1015.1
20260509051233 57 279 1.0 2.0 0.00 0.00 0.00 54 1015.1
20260509051131 57 279 1.0 2.0 0.00 0.00 0.00 54 1015.1
20260509051055 57 279 0.0 2.0 0.00 0.00 0.00 54 1015.1
20260509050937 57 279 0.0 2.0 0.00 0.00 0.00 54 1015.0
20260509050833 57 279 0.0 2.0 0.00 0.00 0.00 54 1015.1
20260509050740 57 279 0.0 2.0 0.00 0.00 0.00 53 1015.0
20260509050619 57 279 0.0 2.0 0.00 0.00 0.00 53 1015.1
20260509050544 57 279 0.0 2.0 0.00 0.00 0.00 53 1015.1
20260509050421 57 279 1.0 2.0 0.00 0.00 0.00 53 1015.1
20260509050336 58 279 1.0 2.0 0.00 0.00 0.00 53 1015.1
20260509050239 58 279 0.0 2.0 0.00 0.00 0.00 53 1015.0
20260509050145 58 279 0.0 2.0 0.00 0.00 0.00 53 1015.0
20260509050020 58 279 1.0 3.0 0.00 0.00 0.00 53 1015.1
20260509045921 58 279 0.0 3.0 0.00 0.00 0.00 53 1015.1
20260509045827 58 279 0.0 3.0 0.00 0.00 0.00 53 1015.1
20260509045725 58 279 0.0 3.0 0.00 0.00 0.00 52 1015.1
20260509045620 58 279 0.0 3.0 0.00 0.00 0.00 52 1015.1
20260509045525 58 279 0.0 3.0 0.00 0.00 0.00 52 1015.1
20260509045451 58 279 0.0 3.0 0.00 0.00 0.00 52 1015.1
20260509045326 58 279 1.0 3.0 0.00 0.00 0.00 52 1015.1
20260509045227 58 279 1.0 3.0 0.00 0.00 0.00 52 1015.0
20260509045133 58 279 1.0 3.0 0.00 0.00 0.00 52 1015.0
20260509045026 58 280 1.0 6.0 0.00 0.00 0.00 51 1015.0
20260509044931 58 280 1.0 6.0 0.00 0.00 0.00 51 1015.0
20260509044827 58 280 1.0 6.0 0.00 0.00 0.00 51 1015.0
20260509044733 58 280 1.0 7.0 0.00 0.00 0.00 51 1015.0
20260509044631 58 280 1.0 7.0 0.00 0.00 0.00 51 1015.0
20260509044540 58 280 1.0 7.0 0.00 0.00 0.00 51 1015.0
20260509044434 59 280 2.0 7.0 0.00 0.00 0.00 51 1015.0
20260509044359 59 280 3.0 7.0 0.00 0.00 0.00 51 1015.0
20260509044233 59 280 3.0 7.0 0.00 0.00 0.00 51 1015.0
20260509044141 59 280 3.0 7.0 0.00 0.00 0.00 50 1015.0
20260509044035 59 280 4.0 7.0 0.00 0.00 0.00 50 1015.0
20260509043929 59 280 4.0 7.0 0.00 0.00 0.00 50 1015.0
20260509043836 59 280 3.0 7.0 0.00 0.00 0.00 49 1015.0
20260509043731 59 281 3.0 6.0 0.00 0.00 0.00 50 1015.0
20260509043637 59 281 3.0 6.0 0.00 0.00 0.00 50 1015.0
20260509043531 59 281 3.0 6.0 0.00 0.00 0.00 50 1015.0
20260509043437 59 281 4.0 6.0 0.00 0.00 0.00 50 1014.9
20260509043329 59 282 3.0 6.0 0.00 0.00 0.00 49 1014.9
20260509043233 59 282 3.0 6.0 0.00 0.00 0.00 49 1014.9
20260509043131 59 283 3.0 6.0 0.00 0.00 0.00 50 1014.9
20260509043033 59 283 3.0 8.0 0.00 0.00 0.00 50 1014.9
20260509042955 59 283 3.0 8.0 0.00 0.00 0.00 49 1014.8
20260509042830 59 283 3.0 8.0 0.00 0.00 0.00 49 1014.8
20260509042756 59 283 3.0 8.0 0.00 0.00 0.00 50 1014.9
20260509042634 59 283 3.0 8.0 0.00 0.00 0.00 49 1014.8
20260509042538 59 283 3.0 8.0 0.00 0.00 0.00 49 1014.9
20260509042416 60 283 4.0 8.0 0.00 0.00 0.00 49 1014.8
20260509042339 60 283 5.0 8.0 0.00 0.00 0.00 49 1014.8
20260509042251 60 283 5.0 8.0 0.00 0.00 0.00 49 1014.9
20260509042136 60 285 4.0 8.0 0.00 0.00 0.00 49 1014.8
20260509042029 60 284 3.0 11.0 0.00 0.00 0.00 49 1014.8
20260509041933 60 285 2.0 11.0 0.00 0.00 0.00 49 1014.8
20260509041828 60 285 3.0 11.0 0.00 0.00 0.00 49 1014.8
20260509041749 60 286 3.0 11.0 0.00 0.00 0.00 49 1014.8
20260509041628 60 285 3.0 11.0 0.00 0.00 0.00 49 1014.8
20260509041551 60 284 3.0 11.0 0.00 0.00 0.00 49 1014.8
20260509041426 60 284 5.0 13.0 0.00 0.00 0.00 49 1014.8
20260509041330 60 283 6.0 13.0 0.00 0.00 0.00 49 1014.8
20260509041226 60 285 5.0 13.0 0.00 0.00 0.00 49 1014.8
20260509041130 60 285 4.0 13.0 0.00 0.00 0.00 49 1014.8
20260509041023 60 286 5.0 13.0 0.00 0.00 0.00 49 1014.8
20260509040932 60 285 6.0 13.0 0.00 0.00 0.00 49 1014.8
20260509040827 60 301 6.0 13.0 0.00 0.00 0.00 49 1014.8
20260509040731 60 295 7.0 13.0 0.00 0.00 0.00 49 1014.8
20260509040628 60 285 7.0 13.0 0.00 0.00 0.00 48 1014.8
20260509040528 60 275 5.0 13.0 0.00 0.00 0.00 49 1014.8
20260509040423 60 271 4.0 13.0 0.00 0.00 0.00 48 1014.8
20260509040322 60 264 5.0 13.0 0.00 0.00 0.00 48 1014.7
20260509040229 60 268 7.0 13.0 0.00 0.00 0.00 48 1014.7
20260509040124 61 262 7.0 13.0 0.00 0.00 0.00 48 1014.7
20260509040026 61 273 7.0 13.0 0.00 0.00 0.00 48 1014.7
20260509035921 61 273 9.0 13.0 0.00 0.00 0.00 48 1014.7
20260509035828 61 277 8.0 13.0 0.00 0.00 0.00 48 1014.7
20260509035724 61 277 6.0 13.0 0.00 0.00 0.00 47 1014.7
20260509035617 61 283 6.0 10.0 0.00 0.00 0.00 47 1014.6
20260509035524 61 290 7.0 10.0 0.00 0.00 0.00 47 1014.7
20260509035419 61 310 7.0 10.0 0.00 0.00 0.00 47 1014.6
20260509035322 61 288 6.0 10.0 0.00 0.00 0.00 47 1014.6
20260509035221 61 310 6.0 10.0 0.00 0.00 0.00 47 1014.6
20260509035124 61 285 6.0 10.0 0.00 0.00 0.00 47 1014.6
20260509035020 61 287 5.0 10.0 0.00 0.00 0.00 47 1014.5
20260509034920 61 289 5.0 10.0 0.00 0.00 0.00 47 1014.5
20260509034825 61 288 6.0 10.0 0.00 0.00 0.00 47 1014.5
20260509034722 61 281 7.0 11.0 0.00 0.00 0.00 47 1014.5
20260509034643 61 273 6.0 11.0 0.00 0.00 0.00 47 1014.5
20260509034517 61 264 7.0 11.0 0.00 0.00 0.00 47 1014.4
20260509034420 61 279 7.0 11.0 0.00 0.00 0.00 46 1014.5
20260509034347 61 280 7.0 11.0 0.00 0.00 0.00 47 1014.5
20260509034221 61 298 8.0 11.0 0.00 0.00 0.00 46 1014.3
20260509034131 62 286 7.0 11.0 0.00 0.00 0.00 46 1014.3
20260509034027 62 294 7.0 11.0 0.00 0.00 0.00 46 1014.4
20260509033924 62 296 8.0 11.0 0.00 0.00 0.00 46 1014.4
20260509033830 62 295 7.0 11.0 0.00 0.00 0.00 46 1014.4
20260509033727 62 290 6.0 9.0 0.00 0.00 0.00 46 1014.3
20260509033633 62 283 7.0 9.0 0.00 0.00 0.00 46 1014.3
20260509033532 62 303 5.0 10.0 0.00 0.00 0.00 46 1014.3
20260509033436 62 294 4.0 12.0 0.00 0.00 0.00 46 1014.3
20260509033338 62 293 4.0 14.0 0.00 0.00 0.00 45 1014.3
20260509033254 62 293 4.0 14.0 0.00 0.00 0.00 46 1014.4
20260509033140 62 293 5.0 14.0 0.00 0.00 0.00 46 1014.3
20260509033103 62 296 5.0 14.0 0.00 0.00 0.00 46 1014.3
20260509032934 62 296 6.0 14.0 0.00 0.00 0.00 45 1014.3
20260509032831 62 288 7.0 14.0 0.00 0.00 0.00 45 1014.3
20260509032724 62 290 8.0 14.0 0.00 0.00 0.00 45 1014.3
20260509032619 62 289 9.0 14.0 0.00 0.00 0.00 45 1014.3
20260509032545 62 294 9.0 14.0 0.00 0.00 0.00 45 1014.3
20260509032420 62 284 8.0 13.0 0.00 0.00 0.00 45 1014.2
20260509032344 62 292 8.0 13.0 0.00 0.00 0.00 45 1014.2
20260509032239 63 273 8.0 20.0 0.00 0.00 0.00 45 1014.3
20260509032141 63 296 9.0 20.0 0.00 0.00 0.00 45 1014.2
20260509032042 63 283 10.0 20.0 0.00 0.00 0.00 45 1014.2
20260509031919 63 279 9.0 20.0 0.00 0.00 0.00 44 1014.3
20260509031833 63 286 7.0 20.0 0.00 0.00 0.00 44 1014.3
20260509031719 63 269 8.0 20.0 0.00 0.00 0.00 44 1014.2
20260509031636 63 273 9.0 20.0 0.00 0.00 0.00 44 1014.2
20260509031538 63 285 10.0 20.0 0.00 0.00 0.00 44 1014.2
20260509031433 63 296 12.0 20.0 0.00 0.00 0.00 44 1014.2
20260509031338 63 311 11.0 20.0 0.00 0.00 0.00 44 1014.3
20260509031218 63 318 10.0 17.0 0.00 0.00 0.00 44 1014.2
20260509031137 63 294 10.0 17.0 0.00 0.00 0.00 44 1014.2
20260509031023 63 308 10.0 17.0 0.00 0.00 0.00 44 1014.2
20260509030917 63 306 11.0 17.0 0.00 0.00 0.00 44 1014.1
20260509030840 63 296 11.0 17.0 0.00 0.00 0.00 43 1014.1
20260509030719 63 291 11.0 17.0 0.00 0.00 0.00 43 1014.1
20260509030626 63 286 12.0 17.0 0.00 0.00 0.00 43 1014.1
20260509030521 64 289 12.0 17.0 0.00 0.00 0.00 43 1014.0
20260509030446 64 271 11.0 17.0 0.00 0.00 0.00 43 1014.0
20260509030341 64 309 10.0 17.0 0.00 0.00 0.00 43 1014.0
20260509030248 64 275 9.0 17.0 0.00 0.00 0.00 42 1014.0
20260509030122 64 300 8.0 17.0 0.00 0.00 0.00 42 1014.1
20260509030028 64 291 9.0 17.0 0.00 0.00 0.00 42 1014.1
20260509025954 64 271 10.0 17.0 0.00 0.00 0.00 42 1014.0
20260509025833 64 286 11.0 17.0 0.00 0.00 0.00 42 1014.0
20260509025738 64 284 11.0 17.0 0.00 0.00 0.00 42 1014.0
20260509025634 64 292 11.0 18.0 0.00 0.00 0.00 42 1014.0
20260509025539 64 273 11.0 18.0 0.00 0.00 0.00 42 1014.0
20260509025443 64 270 11.0 20.0 0.00 0.00 0.00 41 1014.0
20260509025338 64 270 12.0 20.0 0.00 0.00 0.00 41 1013.9
20260509025243 64 271 11.0 20.0 0.00 0.00 0.00 41 1013.9
20260509025119 65 265 11.0 20.0 0.00 0.00 0.00 41 1013.9
20260509025019 65 280 11.0 20.0 0.00 0.00 0.00 41 1013.9
20260509024925 65 296 11.0 20.0 0.00 0.00 0.00 41 1013.9
20260509024842 65 250 13.0 20.0 0.00 0.00 0.00 40 1013.9
20260509024746 65 281 13.0 20.0 0.00 0.00 0.00 40 1013.9
20260509024634 65 285 11.0 20.0 0.00 0.00 0.00 40 1013.9
20260509024529 65 250 9.0 20.0 0.00 0.00 0.00 40 1013.8
20260509024424 65 275 8.0 19.0 0.00 0.00 0.00 40 1013.9
20260509024345 65 268 9.0 19.0 0.00 0.00 0.00 40 1013.8
20260509024233 65 267 9.0 19.0 0.00 0.00 0.00 40 1013.8
20260509024132 65 264 9.0 19.0 0.00 0.00 0.00 40 1013.8
20260509024036 66 271 9.0 19.0 0.00 0.00 0.00 39 1013.8
20260509023932 66 280 11.0 19.0 0.00 0.00 0.00 39 1013.8
20260509023836 66 285 11.0 19.0 0.00 0.00 0.00 39 1013.8
20260509023730 66 268 13.0 19.0 0.00 0.00 0.00 39 1013.8
20260509023657 66 285 13.0 19.0 0.00 0.00 0.00 39 1013.8
20260509023535 66 280 12.0 21.0 0.00 0.00 0.00 39 1013.8
20260509023441 66 277 10.0 21.0 0.00 0.00 0.00 39 1013.7
20260509023406 66 303 11.0 21.0 0.00 0.00 0.00 38 1013.7
20260509023222 66 267 12.0 21.0 0.00 0.00 0.00 38 1013.7
20260509023138 67 289 12.0 21.0 0.00 0.00 0.00 38 1013.7
20260509023023 67 289 12.0 21.0 0.00 0.00 0.00 38 1013.7
20260509022918 67 287 12.0 21.0 0.00 0.00 0.00 38 1013.7
20260509022843 67 290 12.0 21.0 0.00 0.00 0.00 37 1013.7
20260509022751 67 284 11.0 18.0 0.00 0.00 0.00 37 1013.7
20260509022629 67 299 12.0 18.0 0.00 0.00 0.00 37 1013.7
20260509022527 67 272 12.0 18.0 0.00 0.00 0.00 36 1013.7
20260509022424 67 314 12.0 18.0 0.00 0.00 0.00 36 1013.7
20260509022350 67 313 13.0 18.0 0.00 0.00 0.00 36 1013.7
20260509022225 68 324 13.0 18.0 0.00 0.00 0.00 36 1013.6
20260509022153 68 319 10.0 18.0 0.00 0.00 0.00 36 1013.6
20260509022056 68 313 8.0 18.0 0.00 0.00 0.00 36 1013.6
20260509021935 68 286 7.0 18.0 0.00 0.00 0.00 36 1013.6
20260509021841 68 293 9.0 18.0 0.00 0.00 0.00 36 1013.6
20260509021717 68 307 9.0 18.0 0.00 0.00 0.00 36 1013.5
20260509021644 68 304 9.0 18.0 0.00 0.00 0.00 36 1013.5
20260509021539 68 315 10.0 18.0 0.00 0.00 0.00 36 1013.5
20260509021505 68 274 11.0 18.0 0.00 0.00 0.00 36 1013.5
20260509021321 68 308 12.0 18.0 0.00 0.00 0.00 36 1013.5
20260509021252 68 293 12.0 18.0 0.00 0.00 0.00 35 1013.5
20260509021125 68 287 11.0 18.0 0.00 0.00 0.00 35 1013.4
20260509021031 68 287 10.0 18.0 0.00 0.00 0.00 35 1013.4
20260509020928 69 298 10.0 18.0 0.00 0.00 0.00 35 1013.4
20260509020825 69 268 9.0 18.0 0.00 0.00 0.00 35 1013.5
20260509020731 69 298 11.0 18.0 0.00 0.00 0.00 35 1013.5
20260509020630 69 291 12.0 18.0 0.00 0.00 0.00 35 1013.4
20260509020538 69 282 12.0 18.0 0.00 0.00 0.00 34 1013.4
20260509020434 69 299 12.0 18.0 0.00 0.00 0.00 34 1013.4
20260509020319 69 301 10.0 17.0 0.00 0.00 0.00 35 1013.4
20260509020236 69 301 9.0 16.0 0.00 0.00 0.00 35 1013.4
20260509020144 69 311 8.0 16.0 0.00 0.00 0.00 35 1013.4
20260509020018 69 279 8.0 16.0 0.00 0.00 0.00 34 1013.4
20260509015944 69 283 9.0 16.0 0.00 0.00 0.00 34 1013.4
20260509015823 69 281 10.0 16.0 0.00 0.00 0.00 34 1013.5
20260509015731 69 294 11.0 16.0 0.00 0.00 0.00 34 1013.5
20260509015625 69 304 10.0 15.0 0.00 0.00 0.00 34 1013.5
20260509015529 69 291 10.0 15.0 0.00 0.00 0.00 34 1013.5
20260509015427 69 296 10.0 15.0 0.00 0.00 0.00 34 1013.4
20260509015323 70 278 11.0 15.0 0.00 0.00 0.00 34 1013.3
20260509015228 70 275 10.0 15.0 0.00 0.00 0.00 34 1013.3
20260509015159 70 269 10.0 17.0 0.00 0.00 0.00 34 1013.3
20260509015033 70 261 10.0 18.0 0.00 0.00 0.00 34 1013.3
20260509014940 70 253 9.0 18.0 0.00 0.00 0.00 34 1013.3
20260509014837 70 269 9.0 18.0 0.00 0.00 0.00 34 1013.3
20260509014806 70 281 10.0 18.0 0.00 0.00 0.00 34 1013.2
20260509014640 70 300 11.0 18.0 0.00 0.00 0.00 34 1013.2
20260509014524 70 281 11.0 18.0 0.00 0.00 0.00 34 1013.2
20260509014420 70 271 12.0 18.0 0.00 0.00 0.00 34 1013.2
20260509014330 70 301 12.0 18.0 0.00 0.00 0.00 34 1013.2
20260509014227 70 286 11.0 18.0 0.00 0.00 0.00 34 1013.2
20260509014134 70 272 10.0 18.0 0.00 0.00 0.00 34 1013.2
20260509014030 70 262 11.0 18.0 0.00 0.00 0.00 33 1013.2
20260509013936 70 261 11.0 19.0 0.00 0.00 0.00 33 1013.2
20260509013832 70 294 11.0 19.0 0.00 0.00 0.00 33 1013.2
20260509013733 70 275 11.0 19.0 0.00 0.00 0.00 33 1013.2
20260509013637 70 296 11.0 19.0 0.00 0.00 0.00 33 1013.2
20260509013542 70 256 12.0 19.0 0.00 0.00 0.00 33 1013.2
20260509013439 71 255 12.0 19.0 0.00 0.00 0.00 33 1013.2
20260509013316 71 283 12.0 19.0 0.00 0.00 0.00 33 1013.2
20260509013223 71 251 13.0 19.0 0.00 0.00 0.00 33 1013.2
20260509013119 71 249 12.0 19.0 0.00 0.00 0.00 33 1013.1
20260509013028 71 257 12.0 19.0 0.00 0.00 0.00 33 1013.1
20260509012925 71 268 11.0 17.0 0.00 0.00 0.00 33 1013.1
20260509012831 71 242 11.0 17.0 0.00 0.00 0.00 33 1013.1
20260509012729 71 250 11.0 19.0 0.00 0.00 0.00 33 1013.0
20260509012624 71 223 10.0 19.0 0.00 0.00 0.00 33 1013.1
20260509012529 71 271 11.0 19.0 0.00 0.00 0.00 32 1013.1
20260509012426 71 306 10.0 19.0 0.00 0.00 0.00 32 1013.1
20260509012336 71 286 10.0 19.0 0.00 0.00 0.00 32 1013.0
20260509012234 71 273 8.0 19.0 0.00 0.00 0.00 32 1013.1
20260509012141 71 256 10.0 19.0 0.00 0.00 0.00 32 1013.1
20260509012016 71 287 11.0 19.0 0.00 0.00 0.00 32 1013.1
20260509011933 71 287 13.0 19.0 0.00 0.00 0.00 32 1013.1
20260509011840 71 282 11.0 19.0 0.00 0.00 0.00 32 1013.1
20260509011720 71 316 8.0 18.0 0.00 0.00 0.00 32 1013.1
20260509011617 71 287 9.0 20.0 0.00 0.00 0.00 32 1013.1
20260509011523 71 258 9.0 20.0 0.00 0.00 0.00 32 1013.1
20260509011449 71 275 10.0 20.0 0.00 0.00 0.00 32 1013.1
20260509011343 71 255 13.0 20.0 0.00 0.00 0.00 32 1013.1
20260509011230 72 278 13.0 20.0 0.00 0.00 0.00 32 1013.1
20260509011126 72 289 11.0 20.0 0.00 0.00 0.00 32 1013.1
20260509011035 72 281 12.0 20.0 0.00 0.00 0.00 32 1013.1
20260509010933 72 260 13.0 20.0 0.00 0.00 0.00 32 1013.0
20260509010828 72 264 14.0 20.0 0.00 0.00 0.00 32 1013.0
20260509010725 72 254 11.0 20.0 0.00 0.00 0.00 31 1013.0
20260509010632 72 281 10.0 20.0 0.00 0.00 0.00 31 1013.0
20260509010525 72 254 11.0 20.0 0.00 0.00 0.00 31 1013.0
20260509010431 72 260 11.0 20.0 0.00 0.00 0.00 31 1013.0
20260509010347 72 283 12.0 20.0 0.00 0.00 0.00 31 1013.0
20260509010254 72 268 12.0 20.0 0.00 0.00 0.00 31 1012.9
20260509010139 72 285 13.0 20.0 0.00 0.00 0.00 31 1012.9
20260509010034 72 269 13.0 20.0 0.00 0.00 0.00 31 1012.9
20260509005930 72 279 12.0 19.0 0.00 0.00 0.00 31 1012.9
20260509005855 72 304 12.0 23.0 0.00 0.00 0.00 31 1012.9
20260509005739 72 246 13.0 23.0 0.00 0.00 0.00 31 1012.9
20260509005656 72 253 14.0 23.0 0.00 0.00 0.00 31 1012.8
20260509005556 72 257 13.0 23.0 0.00 0.00 0.00 31 1012.9
20260509005444 72 254 12.0 23.0 0.00 0.00 0.00 31 1012.9
20260509005319 72 290 13.0 23.0 0.00 0.00 0.00 31 1012.9
20260509005246 72 267 13.0 23.0 0.00 0.00 0.00 31 1012.9
20260509005121 73 285 14.0 23.0 0.00 0.00 0.00 30 1013.0
20260509005017 73 287 13.0 23.0 0.00 0.00 0.00 30 1012.9
20260509004943 73 302 12.0 21.0 0.00 0.00 0.00 30 1012.9
20260509004848 73 283 13.0 21.0 0.00 0.00 0.00 30 1012.9
20260509004732 73 297 12.0 21.0 0.00 0.00 0.00 30 1012.9
20260509004634 73 282 10.0 20.0 0.00 0.00 0.00 30 1012.9
20260509004529 73 262 11.0 20.0 0.00 0.00 0.00 30 1012.8
20260509004434 73 283 14.0 20.0 0.00 0.00 0.00 29 1012.9
20260509004332 73 243 15.0 20.0 0.00 0.00 0.00 30 1013.0
20260509004238 73 262 14.0 20.0 0.00 0.00 0.00 29 1013.0
20260509004137 73 281 14.0 20.0 0.00 0.00 0.00 29 1012.9
20260509004017 73 270 13.0 20.0 0.00 0.00 0.00 28 1012.9
20260509003923 73 247 12.0 18.0 0.00 0.00 0.00 29 1012.8
20260509003820 73 261 13.0 18.0 0.00 0.00 0.00 29 1012.9
20260509003745 73 262 13.0 18.0 0.00 0.00 0.00 28 1012.9
20260509003650 73 261 12.0 18.0 0.00 0.00 0.00 29 1012.9
20260509003524 73 269 11.0 18.0 0.00 0.00 0.00 29 1012.9
20260509003420 73 281 12.0 18.0 0.00 0.00 0.00 28 1012.9
20260509003325 74 284 12.0 18.0 0.00 0.00 0.00 28 1012.9
20260509003225 74 269 12.0 18.0 0.00 0.00 0.00 28 1012.9
20260509003134 74 273 11.0 18.0 0.00 0.00 0.00 28 1013.0
20260509003030 74 254 11.0 16.0 0.00 0.00 0.00 28 1012.9
20260509002936 74 285 11.0 18.0 0.00 0.00 0.00 29 1012.9
20260509002834 74 243 11.0 18.0 0.00 0.00 0.00 29 1012.9
20260509002733 74 272 10.0 18.0 0.00 0.00 0.00 28 1012.9
20260509002620 73 294 10.0 18.0 0.00 0.00 0.00 28 1012.9
20260509002517 73 281 10.0 18.0 0.00 0.00 0.00 28 1012.9
20260509002442 73 259 10.0 18.0 0.00 0.00 0.00 28 1012.9
20260509002320 74 282 10.0 18.0 0.00 0.00 0.00 29 1012.9
20260509002218 74 252 10.0 18.0 0.00 0.00 0.00 29 1012.9
20260509002123 74 297 11.0 19.0 0.00 0.00 0.00 29 1012.9
20260509002024 74 290 11.0 19.0 0.00 0.00 0.00 28 1012.9
20260509001932 74 295 11.0 20.0 0.00 0.00 0.00 28 1012.9
20260509001828 73 293 10.0 20.0 0.00 0.00 0.00 28 1012.9
20260509001724 73 272 10.0 20.0 0.00 0.00 0.00 28 1012.9
20260509001653 73 260 12.0 20.0 0.00 0.00 0.00 27 1012.9
20260509001537 73 252 12.0 23.0 0.00 0.00 0.00 27 1012.9
20260509001433 73 264 12.0 23.0 0.00 0.00 0.00 26 1012.9
20260509001337 73 273 14.0 23.0 0.00 0.00 0.00 26 1012.9
20260509001218 73 260 14.0 23.0 0.00 0.00 0.00 26 1012.9
20260509001146 73 271 13.0 23.0 0.00 0.00 0.00 26 1012.9
20260509001022 73 259 13.0 23.0 0.00 0.00 0.00 26 1012.8
20260509000939 73 274 15.0 23.0 0.00 0.00 0.00 26 1012.8
20260509000822 73 271 15.0 23.0 0.00 0.00 0.00 26 1012.8
20260509000750 73 286 14.0 22.0 0.00 0.00 0.00 26 1012.8
20260509000624 74 271 12.0 22.0 0.00 0.00 0.00 26 1012.8
20260509000532 74 265 12.0 22.0 0.00 0.00 0.00 26 1012.8
20260509000427 74 273 15.0 22.0 0.00 0.00 0.00 26 1012.7
20260509000325 74 231 16.0 22.0 0.00 0.00 0.00 26 1012.8
20260509000230 74 257 15.0 22.0 0.00 0.00 0.00 27 1012.8
20260509000128 74 271 14.0 22.0 0.00 0.00 0.00 27 1012.8
20260509000031 74 262 12.0 22.0 0.00 0.00 0.00 27 1012.8
20260508235932 74 238 12.0 20.0 0.00 0.00 0.00 26 1012.7
20260508235828 74 305 12.0 20.0 0.00 0.00 0.00 26 1012.7
20260508235752 74 286 11.0 19.0 0.00 0.00 0.00 26 1012.7
20260508235638 74 262 12.0 19.0 0.00 0.00 0.00 26 1012.8
20260508235534 74 273 12.0 19.0 0.00 0.00 0.00 26 1012.9
20260508235431 74 285 12.0 19.0 0.00 0.00 0.00 26 1012.8
20260508235335 74 267 12.0 19.0 0.00 0.00 0.00 26 1012.8
20260508235236 74 267 13.0 20.0 0.00 0.00 0.00 26 1012.8
20260508235143 74 290 13.0 20.0 0.00 0.00 0.00 26 1012.8
20260508235018 74 287 12.0 20.0 0.00 0.00 0.00 27 1012.7
20260508234945 74 280 13.0 20.0 0.00 0.00 0.00 27 1012.8
20260508234821 74 260 13.0 20.0 0.00 0.00 0.00 27 1012.8
20260508234719 74 261 13.0 20.0 0.00 0.00 0.00 27 1012.7
20260508234623 74 288 14.0 20.0 0.00 0.00 0.00 26 1012.8
20260508234531 74 304 14.0 20.0 0.00 0.00 0.00 26 1012.8
20260508234428 75 283 12.0 21.0 0.00 0.00 0.00 26 1012.9
20260508234354 75 287 12.0 21.0 0.00 0.00 0.00 26 1012.7
20260508234229 75 294 14.0 21.0 0.00 0.00 0.00 26 1012.7
20260508234137 75 286 13.0 21.0 0.00 0.00 0.00 26 1012.8
20260508234032 75 300 12.0 21.0 0.00 0.00 0.00 26 1012.7
20260508233917 75 280 12.0 21.0 0.00 0.00 0.00 26 1012.8
20260508233816 75 314 11.0 21.0 0.00 0.00 0.00 26 1012.7
20260508233744 75 310 12.0 21.0 0.00 0.00 0.00 26 1012.7
20260508233619 75 286 15.0 21.0 0.00 0.00 0.00 26 1012.9
20260508233544 75 298 15.0 21.0 0.00 0.00 0.00 26 1012.9
20260508233420 75 255 9.0 18.0 0.00 0.00 0.00 26 1012.8
20260508233345 75 231 8.0 18.0 0.00 0.00 0.00 26 1012.8
20260508233224 75 272 9.0 17.0 0.00 0.00 0.00 26 1012.8
20260508233121 75 266 11.0 18.0 0.00 0.00 0.00 26 1012.8
20260508233027 75 241 11.0 18.0 0.00 0.00 0.00 26 1012.8
20260508232924 75 270 11.0 18.0 0.00 0.00 0.00 26 1012.8
20260508232829 75 285 11.0 18.0 0.00 0.00 0.00 26 1012.8
20260508232726 75 256 10.0 18.0 0.00 0.00 0.00 26 1012.7
20260508232654 75 242 10.0 18.0 0.00 0.00 0.00 26 1012.7
20260508232529 75 259 12.0 20.0 0.00 0.00 0.00 25 1012.8
20260508232438 75 253 13.0 20.0 0.00 0.00 0.00 25 1012.8
20260508232333 75 238 12.0 20.0 0.00 0.00 0.00 26 1012.8
20260508232217 75 258 11.0 20.0 0.00 0.00 0.00 25 1012.7
20260508232144 75 252 10.0 20.0 0.00 0.00 0.00 26 1012.7
20260508232040 75 287 10.0 20.0 0.00 0.00 0.00 26 1012.8
20260508232006 75 284 11.0 20.0 0.00 0.00 0.00 26 1012.8
20260508231822 75 296 12.0 20.0 0.00 0.00 0.00 26 1012.8
20260508231749 75 289 12.0 20.0 0.00 0.00 0.00 26 1012.8
20260508231630 75 252 12.0 19.0 0.00 0.00 0.00 26 1012.8
20260508231533 75 276 13.0 19.0 0.00 0.00 0.00 26 1012.8
20260508231430 75 294 14.0 22.0 0.00 0.00 0.00 25 1012.7
20260508231356 75 303 13.0 22.0 0.00 0.00 0.00 25 1013.0
20260508231304 75 310 11.0 22.0 0.00 0.00 0.00 26 1012.7
20260508231118 75 260 12.0 22.0 0.00 0.00 0.00 25 1012.7
20260508231034 75 321 13.0 22.0 0.00 0.00 0.00 26 1012.7
20260508230939 75 261 14.0 22.0 0.00 0.00 0.00 26 1012.9
20260508230817 75 271 15.0 22.0 0.00 0.00 0.00 25 1012.8
20260508230745 75 281 15.0 22.0 0.00 0.00 0.00 25 1012.6
20260508230626 75 252 13.0 22.0 0.00 0.00 0.00 25 1012.6
20260508230522 75 260 10.0 21.0 0.00 0.00 0.00 25 1012.7
20260508230428 75 263 10.0 21.0 0.00 0.00 0.00 25 1012.7
20260508230324 75 253 11.0 22.0 0.00 0.00 0.00 24 1012.7
20260508230222 75 312 13.0 22.0 0.00 0.00 0.00 25 1012.6
20260508230147 75 298 13.0 22.0 0.00 0.00 0.00 25 1012.6
20260508230034 75 258 12.0 22.0 0.00 0.00 0.00 25 1012.6
20260508225931 75 242 13.0 26.0 0.00 0.00 0.00 25 1012.6
20260508225828 75 282 14.0 26.0 0.00 0.00 0.00 25 1012.7
20260508225754 75 281 15.0 26.0 0.00 0.00 0.00 25 1012.7
20260508225638 75 271 16.0 26.0 0.00 0.00 0.00 25 1012.7
20260508225602 75 297 17.0 26.0 0.00 0.00 0.00 25 1012.7
20260508225417 75 282 14.0 26.0 0.00 0.00 0.00 25 1012.6
20260508225319 75 308 14.0 26.0 0.00 0.00 0.00 25 1012.7
20260508225226 75 291 16.0 26.0 0.00 0.00 0.00 25 1012.7
20260508225121 75 288 14.0 26.0 0.00 0.00 0.00 25 1012.6
20260508225027 75 276 13.0 22.0 0.00 0.00 0.00 25 1012.6
20260508224943 75 254 16.0 22.0 0.00 0.00 0.00 25 1012.8
20260508224828 75 260 17.0 22.0 0.00 0.00 0.00 25 1012.8
20260508224724 76 289 15.0 20.0 0.00 0.00 0.00 25 1012.7
20260508224649 76 278 14.0 20.0 0.00 0.00 0.00 25 1012.7
20260508224552 76 299 15.0 20.0 0.00 0.00 0.00 25 1012.7
20260508224441 76 308 14.0 19.0 0.00 0.00 0.00 24 1012.7
20260508224316 76 298 12.0 19.0 0.00 0.00 0.00 25 1012.8
20260508224244 76 286 12.0 19.0 0.00 0.00 0.00 25 1012.8
20260508224117 76 275 13.0 20.0 0.00 0.00 0.00 24 1012.8
20260508224022 76 302 11.0 20.0 0.00 0.00 0.00 25 1012.9
20260508223918 76 273 9.0 20.0 0.00 0.00 0.00 25 1012.8
20260508223844 76 286 9.0 20.0 0.00 0.00 0.00 25 1012.8
20260508223744 76 302 12.0 20.0 0.00 0.00 0.00 25 1012.9
20260508223630 76 268 14.0 20.0 0.00 0.00 0.00 25 1012.9
20260508223525 76 295 12.0 20.0 0.00 0.00 0.00 24 1013.1
20260508223421 76 300 12.0 20.0 0.00 0.00 0.00 24 1012.9
20260508223326 76 289 13.0 20.0 0.00 0.00 0.00 24 1012.9
20260508223252 76 288 13.0 19.0 0.00 0.00 0.00 25 1013.0
20260508223128 76 281 12.0 22.0 0.00 0.00 0.00 25 1013.0
20260508223035 76 295 10.0 22.0 0.00 0.00 0.00 25 1012.8
20260508222932 76 269 10.0 22.0 0.00 0.00 0.00 24 1012.8
20260508222830 76 278 11.0 22.0 0.00 0.00 0.00 24 1012.9
20260508222737 76 311 11.0 22.0 0.00 0.00 0.00 24 1012.8
20260508222640 76 322 11.0 22.0 0.00 0.00 0.00 24 1012.9
20260508222516 76 305 12.0 22.0 0.00 0.00 0.00 24 1012.9
20260508222442 76 306 12.0 22.0 0.00 0.00 0.00 24 1012.9
20260508222323 76 289 10.0 22.0 0.00 0.00 0.00 24 1012.8
20260508222221 76 296 11.0 21.0 0.00 0.00 0.00 24 1012.9
20260508222123 76 277 13.0 21.0 0.00 0.00 0.00 24 1012.9
20260508222027 76 308 13.0 21.0 0.00 0.00 0.00 24 1012.9
20260508221942 76 312 13.0 21.0 0.00 0.00 0.00 24 1013.1
20260508221828 76 278 11.0 21.0 0.00 0.00 0.00 24 1013.1
20260508221732 77 301 9.0 21.0 0.00 0.00 0.00 24 1013.0
20260508221630 76 308 10.0 18.0 0.00 0.00 0.00 24 1012.9
20260508221532 76 249 10.0 18.0 0.00 0.00 0.00 24 1012.8
20260508221432 76 292 10.0 18.0 0.00 0.00 0.00 24 1012.9
20260508221338 76 271 11.0 18.0 0.00 0.00 0.00 24 1012.9
20260508221235 76 264 13.0 19.0 0.00 0.00 0.00 24 1012.8
20260508221203 76 285 14.0 19.0 0.00 0.00 0.00 24 1012.9
20260508221016 77 298 13.0 19.0 0.00 0.00 0.00 24 1012.8
20260508220943 77 285 12.0 19.0 0.00 0.00 0.00 24 1012.8
20260508220824 77 299 11.0 21.0 0.00 0.00 0.00 24 1012.7
20260508220730 77 306 13.0 21.0 0.00 0.00 0.00 24 1012.7
20260508220624 77 281 14.0 21.0 0.00 0.00 0.00 24 1012.8
20260508220527 77 271 14.0 21.0 0.00 0.00 0.00 23 1012.8
20260508220454 77 288 13.0 21.0 0.00 0.00 0.00 24 1012.8
20260508220328 77 280 13.0 21.0 0.00 0.00 0.00 24 1012.8
20260508220233 77 275 14.0 21.0 0.00 0.00 0.00 23 1012.7
20260508220133 78 291 12.0 21.0 0.00 0.00 0.00 24 1012.8
20260508220038 78 296 12.0 19.0 0.00 0.00 0.00 24 1012.8
20260508215939 78 278 14.0 19.0 0.00 0.00 0.00 24 1012.7
20260508215905 78 260 14.0 19.0 0.00 0.00 0.00 24 1012.7
20260508215740 78 269 13.0 19.0 0.00 0.00 0.00 24 1012.8
20260508215644 78 247 13.0 19.0 0.00 0.00 0.00 24 1012.7
20260508215519 78 289 11.0 18.0 0.00 0.00 0.00 24 1012.7
20260508215445 78 282 9.0 17.0 0.00 0.00 0.00 24 1012.7
20260508215328 78 294 9.0 17.0 0.00 0.00 0.00 24 1012.7
20260508215225 78 258 10.0 17.0 0.00 0.00 0.00 24 1012.7
20260508215135 77 248 11.0 19.0 0.00 0.00 0.00 25 1012.7
20260508215031 77 264 10.0 19.0 0.00 0.00 0.00 25 1012.7
20260508214936 77 273 8.0 19.0 0.00 0.00 0.00 25 1012.7
20260508214830 77 264 8.0 19.0 0.00 0.00 0.00 24 1012.7
20260508214727 77 254 11.0 19.0 0.00 0.00 0.00 24 1012.7
20260508214634 77 281 11.0 19.0 0.00 0.00 0.00 24 1012.8
20260508214530 77 276 10.0 19.0 0.00 0.00 0.00 24 1012.8
20260508214439 77 276 12.0 19.0 0.00 0.00 0.00 24 1012.8
20260508214403 77 255 11.0 19.0 0.00 0.00 0.00 25 1012.9
20260508214221 77 291 8.0 17.0 0.00 0.00 0.00 25 1012.8
20260508214116 76 263 8.0 19.0 0.00 0.00 0.00 24 1012.7
20260508214043 76 271 9.0 23.0 0.00 0.00 0.00 24 1012.7
20260508213920 76 269 10.0 23.0 0.00 0.00 0.00 24 1012.7
20260508213821 76 259 10.0 23.0 0.00 0.00 0.00 24 1012.8
20260508213727 76 293 10.0 23.0 0.00 0.00 0.00 24 1012.8
20260508213623 76 262 9.0 23.0 0.00 0.00 0.00 24 1012.8
20260508213527 76 256 11.0 23.0 0.00 0.00 0.00 24 1012.8
20260508213432 76 230 12.0 23.0 0.00 0.00 0.00 24 1012.7
20260508213327 76 262 14.0 23.0 0.00 0.00 0.00 24 1012.7
20260508213222 76 250 11.0 29.0 0.00 0.00 0.00 24 1012.8
20260508213129 76 264 8.0 29.0 0.00 0.00 0.00 24 1012.8
20260508213037 76 281 11.0 29.0 0.00 0.00 0.00 24 1012.8
20260508212933 76 299 14.0 29.0 0.00 0.00 0.00 24 1012.9
20260508212838 77 305 14.0 29.0 0.00 0.00 0.00 24 1012.9
20260508212805 77 287 13.0 29.0 0.00 0.00 0.00 24 1012.9
20260508212619 77 292 13.0 29.0 0.00 0.00 0.00 24 1012.8
20260508212544 77 281 17.0 29.0 0.00 0.00 0.00 23 1012.8
20260508212440 77 276 17.0 29.0 0.00 0.00 0.00 23 1012.8
20260508212344 77 275 14.0 24.0 0.00 0.00 0.00 24 1012.8
20260508212226 77 321 12.0 19.0 0.00 0.00 0.00 24 1012.7
20260508212121 77 272 9.0 23.0 0.00 0.00 0.00 25 1012.7
20260508212047 77 273 9.0 23.0 0.00 0.00 0.00 24 1012.7
20260508211923 76 273 10.0 23.0 0.00 0.00 0.00 24 1012.8
20260508211829 76 276 10.0 23.0 0.00 0.00 0.00 24 1012.8
20260508211725 76 296 11.0 23.0 0.00 0.00 0.00 23 1012.7
20260508211634 76 315 11.0 23.0 0.00 0.00 0.00 24 1012.9
20260508211533 76 300 12.0 23.0 0.00 0.00 0.00 24 1012.8
20260508211438 76 304 15.0 23.0 0.00 0.00 0.00 24 1012.8
20260508211354 76 256 15.0 23.0 0.00 0.00 0.00 24 1012.7
20260508211238 76 263 11.0 21.0 0.00 0.00 0.00 24 1012.7
20260508211144 76 294 11.0 21.0 0.00 0.00 0.00 24 1012.7
20260508211039 76 280 10.0 21.0 0.00 0.00 0.00 24 1012.7
20260508210942 76 260 12.0 26.0 0.00 0.00 0.00 24 1012.7
20260508210836 76 275 12.0 26.0 0.00 0.00 0.00 25 1012.7
20260508210727 75 260 12.0 26.0 0.00 0.00 0.00 24 1012.6
20260508210620 75 236 13.0 26.0 0.00 0.00 0.00 24 1012.7
20260508210524 75 253 11.0 26.0 0.00 0.00 0.00 23 1012.7
20260508210419 75 286 11.0 26.0 0.00 0.00 0.00 23 1012.6
20260508210325 76 298 12.0 26.0 0.00 0.00 0.00 23 1012.6
20260508210222 76 300 16.0 26.0 0.00 0.00 0.00 23 1012.7
20260508210150 76 294 15.0 26.0 0.00 0.00 0.00 22 1012.7
20260508210028 76 281 11.0 23.0 0.00 0.00 0.00 22 1012.6
20260508205955 76 291 11.0 23.0 0.00 0.00 0.00 22 1012.7
20260508205832 76 286 12.0 23.0 0.00 0.00 0.00 23 1012.6
20260508205738 76 264 14.0 23.0 0.00 0.00 0.00 23 1012.7
20260508205706 76 296 13.0 24.0 0.00 0.00 0.00 22 1012.7
20260508205521 76 270 14.0 24.0 0.00 0.00 0.00 22 1012.8
20260508205418 76 276 14.0 24.0 0.00 0.00 0.00 22 1012.7
20260508205328 76 265 14.0 24.0 0.00 0.00 0.00 22 1012.7
20260508205225 76 264 14.0 24.0 0.00 0.00 0.00 22 1012.7
20260508205154 76 269 15.0 24.0 0.00 0.00 0.00 22 1012.6
20260508205057 77 226 13.0 24.0 0.00 0.00 0.00 22 1012.7
20260508204932 76 246 13.0 24.0 0.00 0.00 0.00 22 1012.7
20260508204829 76 279 13.0 24.0 0.00 0.00 0.00 22 1012.6
20260508204737 76 282 12.0 20.0 0.00 0.00 0.00 22 1012.7
20260508204616 76 254 11.0 20.0 0.00 0.00 0.00 22 1012.6
20260508204542 76 237 10.0 19.0 0.00 0.00 0.00 22 1012.6
20260508204419 76 254 11.0 19.0 0.00 0.00 0.00 22 1012.7
20260508204344 76 255 12.0 19.0 0.00 0.00 0.00 22 1012.7
20260508204239 76 264 10.0 19.0 0.00 0.00 0.00 22 1012.6
20260508204207 76 271 7.0 23.0 0.00 0.00 0.00 22 1012.6
20260508204017 76 271 9.0 21.0 0.00 0.00 0.00 22 1012.6
20260508203942 76 288 11.0 21.0 0.00 0.00 0.00 22 1012.7
20260508203842 76 264 10.0 21.0 0.00 0.00 0.00 22 1012.6
20260508203729 76 289 10.0 21.0 0.00 0.00 0.00 22 1012.6
20260508203624 76 272 10.0 21.0 0.00 0.00 0.00 22 1012.7
20260508203530 76 302 10.0 21.0 0.00 0.00 0.00 22 1012.7
20260508203426 76 267 13.0 21.0 0.00 0.00 0.00 22 1012.7
20260508203332 76 281 16.0 21.0 0.00 0.00 0.00 22 1012.7
20260508203231 76 231 15.0 21.0 0.00 0.00 0.00 22 1012.6
20260508203118 76 268 11.0 21.0 0.00 0.00 0.00 22 1012.6
20260508203044 76 258 9.0 17.0 0.00 0.00 0.00 22 1012.6
20260508202922 76 275 10.0 17.0 0.00 0.00 0.00 22 1012.7
20260508202817 76 286 9.0 17.0 0.00 0.00 0.00 23 1012.7
20260508202723 76 301 9.0 17.0 0.00 0.00 0.00 23 1012.6
20260508202617 75 280 10.0 19.0 0.00 0.00 0.00 23 1012.6
20260508202524 75 296 12.0 19.0 0.00 0.00 0.00 23 1012.7
20260508202424 75 271 12.0 19.0 0.00 0.00 0.00 22 1012.9
20260508202329 75 277 10.0 19.0 0.00 0.00 0.00 23 1012.9
20260508202245 75 275 10.0 19.0 0.00 0.00 0.00 23 1012.6
20260508202152 75 260 10.0 19.0 0.00 0.00 0.00 23 1012.6
20260508202025 75 245 10.0 19.0 0.00 0.00 0.00 23 1012.6
20260508201932 75 269 12.0 19.0 0.00 0.00 0.00 22 1012.6
20260508201829 75 306 12.0 19.0 0.00 0.00 0.00 22 1012.8
20260508201735 75 285 11.0 19.0 0.00 0.00 0.00 22 1012.8
20260508201637 75 305 11.0 20.0 0.00 0.00 0.00 22 1012.7
20260508201542 76 287 13.0 20.0 0.00 0.00 0.00 22 1012.9
20260508201438 76 300 12.0 20.0 0.00 0.00 0.00 23 1012.8
20260508201342 75 268 12.0 20.0 0.00 0.00 0.00 22 1012.7
20260508201242 75 299 12.0 23.0 0.00 0.00 0.00 22 1012.7
20260508201125 75 268 11.0 23.0 0.00 0.00 0.00 23 1012.7
20260508201021 75 245 11.0 23.0 0.00 0.00 0.00 23 1012.7
20260508200931 75 293 13.0 23.0 0.00 0.00 0.00 22 1012.7
20260508200848 75 271 11.0 23.0 0.00 0.00 0.00 23 1012.7
20260508200732 75 283 10.0 23.0 0.00 0.00 0.00 22 1012.6
20260508200630 75 260 11.0 23.0 0.00 0.00 0.00 23 1012.7
20260508200554 75 221 10.0 23.0 0.00 0.00 0.00 23 1012.7
20260508200430 74 274 10.0 23.0 0.00 0.00 0.00 22 1012.7
20260508200336 74 291 9.0 23.0 0.00 0.00 0.00 22 1012.9
20260508200217 74 280 10.0 19.0 0.00 0.00 0.00 21 1012.7
20260508200146 74 287 11.0 19.0 0.00 0.00 0.00 21 1012.7
20260508200020 74 288 10.0 19.0 0.00 0.00 0.00 22 1012.7
20260508195917 74 271 12.0 19.0 0.00 0.00 0.00 22 1012.8
20260508195843 74 281 12.0 19.0 0.00 0.00 0.00 22 1012.7
20260508195720 74 302 11.0 19.0 0.00 0.00 0.00 21 1012.6
20260508195624 74 306 13.0 19.0 0.00 0.00 0.00 21 1012.6
20260508195524 74 279 12.0 19.0 0.00 0.00 0.00 21 1012.7
20260508195429 74 290 11.0 19.0 0.00 0.00 0.00 22 1012.7
20260508195325 74 273 10.0 19.0 0.00 0.00 0.00 21 1012.6
20260508195223 74 296 11.0 19.0 0.00 0.00 0.00 22 1012.6
20260508195146 74 250 11.0 22.0 0.00 0.00 0.00 22 1012.6
20260508195030 74 258 12.0 23.0 0.00 0.00 0.00 22 1012.6
20260508194927 74 260 13.0 23.0 0.00 0.00 0.00 21 1012.6
20260508194836 74 254 13.0 23.0 0.00 0.00 0.00 21 1012.6
20260508194732 74 269 13.0 23.0 0.00 0.00 0.00 21 1012.6
20260508194640 74 290 14.0 23.0 0.00 0.00 0.00 21 1012.6
20260508194533 74 267 13.0 23.0 0.00 0.00 0.00 21 1012.6
20260508194419 74 299 15.0 23.0 0.00 0.00 0.00 21 1012.6
20260508194317 74 258 14.0 23.0 0.00 0.00 0.00 20 1012.6
20260508194245 74 239 14.0 22.0 0.00 0.00 0.00 20 1012.5
20260508194122 74 246 13.0 24.0 0.00 0.00 0.00 20 1012.7
20260508194025 74 243 12.0 24.0 0.00 0.00 0.00 20 1012.5
20260508193922 74 254 12.0 24.0 0.00 0.00 0.00 21 1012.6
20260508193817 73 256 14.0 24.0 0.00 0.00 0.00 22 1012.6
20260508193723 73 255 14.0 24.0 0.00 0.00 0.00 22 1012.6
20260508193649 73 249 14.0 24.0 0.00 0.00 0.00 21 1012.6
20260508193523 73 248 13.0 24.0 0.00 0.00 0.00 21 1012.6
20260508193434 73 257 13.0 24.0 0.00 0.00 0.00 21 1012.6
20260508193328 73 260 15.0 24.0 0.00 0.00 0.00 22 1012.7
20260508193224 73 261 14.0 24.0 0.00 0.00 0.00 22 1012.7
20260508193150 72 262 12.0 23.0 0.00 0.00 0.00 22 1012.7
20260508193054 72 280 13.0 23.0 0.00 0.00 0.00 22 1012.9
20260508192929 72 250 14.0 23.0 0.00 0.00 0.00 21 1012.8
20260508192836 72 282 15.0 23.0 0.00 0.00 0.00 21 1012.8
20260508192732 72 270 13.0 23.0 0.00 0.00 0.00 21 1012.7
20260508192639 72 274 13.0 23.0 0.00 0.00 0.00 20 1012.7
20260508192534 72 268 15.0 23.0 0.00 0.00 0.00 20 1012.7
20260508192441 72 278 16.0 23.0 0.00 0.00 0.00 20 1012.8
20260508192318 72 271 15.0 22.0 0.00 0.00 0.00 21 1012.7
20260508192248 72 279 15.0 22.0 0.00 0.00 0.00 21 1012.7
20260508192120 72 300 14.0 22.0 0.00 0.00 0.00 22 1012.7
20260508192024 72 272 15.0 22.0 0.00 0.00 0.00 22 1012.8
20260508191922 72 260 16.0 22.0 0.00 0.00 0.00 22 1012.8
20260508191827 72 264 16.0 22.0 0.00 0.00 0.00 21 1012.8
20260508191753 72 250 15.0 22.0 0.00 0.00 0.00 22 1012.8
20260508191630 72 260 13.0 22.0 0.00 0.00 0.00 23 1012.7
20260508191525 72 249 12.0 20.0 0.00 0.00 0.00 22 1012.7
20260508191432 71 262 12.0 20.0 0.00 0.00 0.00 23 1012.6
20260508191336 71 244 11.0 20.0 0.00 0.00 0.00 22 1012.7
20260508191217 71 308 12.0 20.0 0.00 0.00 0.00 23 1012.7
20260508191144 71 250 13.0 20.0 0.00 0.00 0.00 23 1012.7
20260508191018 71 273 15.0 20.0 0.00 0.00 0.00 23 1012.7
20260508190935 71 265 15.0 21.0 0.00 0.00 0.00 23 1012.7
20260508190842 71 257 13.0 21.0 0.00 0.00 0.00 23 1012.7
20260508190720 70 264 11.0 21.0 0.00 0.00 0.00 22 1012.7
20260508190624 70 280 12.0 21.0 0.00 0.00 0.00 22 1012.8
20260508190526 70 280 13.0 21.0 0.00 0.00 0.00 22 1012.8
20260508190425 70 290 12.0 21.0 0.00 0.00 0.00 23 1012.8
20260508190320 70 252 12.0 21.0 0.00 0.00 0.00 24 1012.8
20260508190228 70 283 13.0 21.0 0.00 0.00 0.00 24 1012.8
20260508190122 70 259 14.0 21.0 0.00 0.00 0.00 24 1012.7
20260508190028 70 240 13.0 20.0 0.00 0.00 0.00 24 1012.7
20260508185924 70 250 14.0 19.0 0.00 0.00 0.00 24 1012.7
20260508185824 70 267 13.0 19.0 0.00 0.00 0.00 25 1012.7
20260508185730 70 273 11.0 19.0 0.00 0.00 0.00 25 1012.7
20260508185625 70 313 12.0 19.0 0.00 0.00 0.00 25 1012.7
20260508185528 70 251 13.0 19.0 0.00 0.00 0.00 26 1012.7
20260508185425 70 261 11.0 22.0 0.00 0.00 0.00 25 1012.7
20260508185330 70 285 10.0 22.0 0.00 0.00 0.00 25 1012.7
20260508185226 70 282 10.0 22.0 0.00 0.00 0.00 25 1012.7
20260508185137 70 279 9.0 22.0 0.00 0.00 0.00 25 1012.7
20260508185050 70 273 11.0 22.0 0.00 0.00 0.00 25 1012.7
20260508184931 70 269 12.0 22.0 0.00 0.00 0.00 25 1012.7
20260508184828 70 308 12.0 22.0 0.00 0.00 0.00 26 1012.7
20260508184755 70 264 13.0 22.0 0.00 0.00 0.00 26 1012.7
20260508184632 69 264 13.0 22.0 0.00 0.00 0.00 26 1012.7
20260508184537 69 248 11.0 21.0 0.00 0.00 0.00 26 1012.7
20260508184418 69 264 12.0 21.0 0.00 0.00 0.00 26 1012.7
20260508184344 69 260 13.0 21.0 0.00 0.00 0.00 26 1012.7
20260508184222 68 262 13.0 21.0 0.00 0.00 0.00 26 1012.7
20260508184116 68 267 12.0 21.0 0.00 0.00 0.00 27 1012.8
20260508184023 68 264 12.0 21.0 0.00 0.00 0.00 27 1012.8
20260508183918 68 269 13.0 21.0 0.00 0.00 0.00 27 1012.9
20260508183842 68 256 13.0 21.0 0.00 0.00 0.00 27 1012.9
20260508183719 67 248 12.0 19.0 0.00 0.00 0.00 28 1012.9
20260508183623 67 264 12.0 19.0 0.00 0.00 0.00 28 1012.9
20260508183518 67 290 13.0 19.0 0.00 0.00 0.00 28 1013.0
20260508183445 67 273 12.0 18.0 0.00 0.00 0.00 29 1012.9
20260508183321 67 273 10.0 18.0 0.00 0.00 0.00 32 1012.9
20260508183226 67 278 9.0 18.0 0.00 0.00 0.00 33 1012.9
20260508183121 67 294 8.0 18.0 0.00 0.00 0.00 32 1012.9
20260508183050 66 260 9.0 18.0 0.00 0.00 0.00 32 1012.9
20260508182925 66 257 12.0 20.0 0.00 0.00 0.00 31 1013.0
20260508182831 66 268 13.0 20.0 0.00 0.00 0.00 30 1013.0
20260508182729 66 256 12.0 20.0 0.00 0.00 0.00 32 1013.0
20260508182638 66 301 13.0 20.0 0.00 0.00 0.00 32 1012.9
20260508182532 66 265 14.0 20.0 0.00 0.00 0.00 33 1013.0
20260508182429 65 293 13.0 20.0 0.00 0.00 0.00 32 1013.0
20260508182339 65 258 12.0 20.0 0.00 0.00 0.00 33 1012.9
20260508182216 65 265 14.0 20.0 0.00 0.00 0.00 33 1012.9
20260508182144 65 265 13.0 20.0 0.00 0.00 0.00 33 1012.9
20260508182017 64 284 12.0 24.0 0.00 0.00 0.00 35 1012.9
20260508181941 64 271 12.0 24.0 0.00 0.00 0.00 35 1012.9
20260508181817 64 231 12.0 24.0 0.00 0.00 0.00 34 1012.9
20260508181740 64 277 12.0 24.0 0.00 0.00 0.00 34 1012.9
20260508181618 64 252 12.0 24.0 0.00 0.00 0.00 34 1012.9
20260508181545 64 280 12.0 24.0 0.00 0.00 0.00 34 1012.9
20260508181420 64 256 13.0 24.0 0.00 0.00 0.00 33 1012.9
20260508181316 64 256 14.0 24.0 0.00 0.00 0.00 33 1012.9
20260508181243 64 282 14.0 24.0 0.00 0.00 0.00 33 1012.9
20260508181129 64 254 13.0 21.0 0.00 0.00 0.00 33 1012.9
20260508181025 64 302 14.0 21.0 0.00 0.00 0.00 33 1012.9
20260508180953 64 279 13.0 20.0 0.00 0.00 0.00 33 1012.9
20260508180835 64 262 12.0 20.0 0.00 0.00 0.00 33 1012.8
20260508180730 64 293 11.0 20.0 0.00 0.00 0.00 33 1012.9
20260508180638 64 285 11.0 24.0 0.00 0.00 0.00 34 1012.9
20260508180532 64 258 11.0 24.0 0.00 0.00 0.00 34 1012.9
20260508180430 64 264 12.0 24.0 0.00 0.00 0.00 33 1012.9
20260508180335 63 259 12.0 24.0 0.00 0.00 0.00 33 1012.9
20260508180218 63 253 13.0 24.0 0.00 0.00 0.00 32 1012.8
20260508180142 64 249 15.0 24.0 0.00 0.00 0.00 33 1012.8
20260508180046 64 250 15.0 24.0 0.00 0.00 0.00 32 1012.9
20260508175918 64 253 15.0 24.0 0.00 0.00 0.00 32 1012.9
20260508175844 64 264 15.0 24.0 0.00 0.00 0.00 32 1012.9
20260508175723 64 277 12.0 18.0 0.00 0.00 0.00 31 1012.8
20260508175616 64 279 11.0 18.0 0.00 0.00 0.00 31 1012.7
20260508175521 64 287 11.0 18.0 0.00 0.00 0.00 31 1012.7
20260508175422 64 277 11.0 18.0 0.00 0.00 0.00 32 1012.7
20260508175319 64 298 10.0 18.0 0.00 0.00 0.00 32 1012.6
20260508175226 64 283 11.0 18.0 0.00 0.00 0.00 32 1012.6
20260508175119 64 263 12.0 18.0 0.00 0.00 0.00 31 1012.6
20260508175023 64 269 12.0 18.0 0.00 0.00 0.00 31 1012.5
20260508174916 64 265 13.0 18.0 0.00 0.00 0.00 32 1012.4
20260508174842 64 264 12.0 18.0 0.00 0.00 0.00 32 1012.4
20260508174722 64 254 11.0 18.0 0.00 0.00 0.00 32 1012.4
20260508174628 64 282 13.0 20.0 0.00 0.00 0.00 32 1012.4
20260508174543 64 254 11.0 20.0 0.00 0.00 0.00 32 1012.4
20260508174427 64 270 12.0 20.0 0.00 0.00 0.00 31 1012.4
20260508174353 64 279 12.0 20.0 0.00 0.00 0.00 32 1012.4
20260508174229 64 273 12.0 20.0 0.00 0.00 0.00 32 1012.3
20260508174137 64 263 10.0 20.0 0.00 0.00 0.00 33 1012.4
20260508174016 64 258 12.0 20.0 0.00 0.00 0.00 32 1012.3
20260508173933 64 260 13.0 20.0 0.00 0.00 0.00 32 1012.3
20260508173818 64 267 13.0 20.0 0.00 0.00 0.00 33 1012.4
20260508173744 64 254 12.0 20.0 0.00 0.00 0.00 33 1012.4
20260508173640 64 295 11.0 20.0 0.00 0.00 0.00 32 1012.3
20260508173545 64 269 12.0 20.0 0.00 0.00 0.00 32 1012.3
20260508173420 64 256 14.0 21.0 0.00 0.00 0.00 31 1012.3
20260508173320 64 272 13.0 21.0 0.00 0.00 0.00 31 1012.3
20260508173228 64 276 13.0 21.0 0.00 0.00 0.00 31 1012.3
20260508173121 64 251 14.0 21.0 0.00 0.00 0.00 31 1012.4
20260508173018 64 269 14.0 21.0 0.00 0.00 0.00 32 1012.4
20260508172943 64 279 13.0 21.0 0.00 0.00 0.00 31 1012.4
20260508172828 64 259 13.0 21.0 0.00 0.00 0.00 31 1012.4
20260508172725 64 279 12.0 21.0 0.00 0.00 0.00 32 1012.4
20260508172637 64 256 12.0 21.0 0.00 0.00 0.00 32 1012.4
20260508172550 64 264 12.0 21.0 0.00 0.00 0.00 31 1012.4
20260508172435 64 265 14.0 21.0 0.00 0.00 0.00 32 1012.4
20260508172402 64 281 13.0 21.0 0.00 0.00 0.00 33 1012.4
20260508172216 64 239 14.0 21.0 0.00 0.00 0.00 33 1012.5
20260508172135 64 282 14.0 21.0 0.00 0.00 0.00 33 1012.5
20260508172039 64 299 13.0 22.0 0.00 0.00 0.00 34 1012.5
20260508171919 64 269 11.0 20.0 0.00 0.00 0.00 34 1012.6
20260508171816 64 284 13.0 20.0 0.00 0.00 0.00 33 1012.6
20260508171721 64 277 14.0 25.0 0.00 0.00 0.00 33 1012.5
20260508171616 64 254 14.0 25.0 0.00 0.00 0.00 34 1012.7
20260508171521 64 254 13.0 25.0 0.00 0.00 0.00 33 1012.6
20260508171416 64 269 14.0 25.0 0.00 0.00 0.00 34 1012.6
20260508171322 64 281 14.0 25.0 0.00 0.00 0.00 34 1012.6
20260508171223 64 330 12.0 25.0 0.00 0.00 0.00 34 1012.6
20260508171131 64 262 13.0 25.0 0.00 0.00 0.00 34 1012.6
20260508171026 64 258 14.0 25.0 0.00 0.00 0.00 33 1012.6
20260508170950 64 267 15.0 25.0 0.00 0.00 0.00 32 1012.6
20260508170834 64 288 15.0 25.0 0.00 0.00 0.00 33 1012.6
20260508170750 64 280 14.0 23.0 0.00 0.00 0.00 32 1012.6
20260508170637 64 279 15.0 23.0 0.00 0.00 0.00 32 1012.6
20260508170541 64 253 16.0 23.0 0.00 0.00 0.00 32 1012.6
20260508170421 64 261 13.0 23.0 0.00 0.00 0.00 32 1012.6
20260508170319 64 274 12.0 21.0 0.00 0.00 0.00 32 1012.6
20260508170245 64 277 12.0 21.0 0.00 0.00 0.00 31 1012.6
20260508170150 64 274 13.0 21.0 0.00 0.00 0.00 31 1012.6
20260508170045 64 280 14.0 19.0 0.00 0.00 0.00 32 1012.6
20260508165930 64 285 12.0 19.0 0.00 0.00 0.00 33 1012.6
20260508165826 65 287 10.0 20.0 0.00 0.00 0.00 34 1012.6
20260508165753 64 271 9.0 20.0 0.00 0.00 0.00 35 1012.6
20260508165631 64 264 9.0 20.0 0.00 0.00 0.00 35 1012.6
20260508165540 64 272 10.0 20.0 0.00 0.00 0.00 34 1012.6
20260508165505 64 273 11.0 20.0 0.00 0.00 0.00 34 1012.6
20260508165322 64 285 12.0 20.0 0.00 0.00 0.00 33 1012.6
20260508165221 64 294 12.0 20.0 0.00 0.00 0.00 34 1012.6
20260508165116 65 289 12.0 20.0 0.00 0.00 0.00 35 1012.7
20260508165022 64 260 10.0 20.0 0.00 0.00 0.00 36 1012.6
20260508164923 64 280 8.0 18.0 0.00 0.00 0.00 36 1012.7
20260508164850 64 329 9.0 18.0 0.00 0.00 0.00 35 1012.7
20260508164756 64 264 11.0 18.0 0.00 0.00 0.00 35 1012.7
20260508164634 64 255 11.0 18.0 0.00 0.00 0.00 36 1012.7
20260508164539 65 281 9.0 19.0 0.00 0.00 0.00 36 1012.7
20260508164435 65 270 11.0 19.0 0.00 0.00 0.00 36 1012.7
20260508164402 65 266 11.0 19.0 0.00 0.00 0.00 36 1012.7
20260508164221 65 287 8.0 19.0 0.00 0.00 0.00 37 1012.8
20260508164121 65 258 10.0 19.0 0.00 0.00 0.00 37 1012.8
20260508164027 65 271 11.0 19.0 0.00 0.00 0.00 37 1012.8
20260508163924 65 277 11.0 19.0 0.00 0.00 0.00 38 1012.8
20260508163829 65 260 12.0 19.0 0.00 0.00 0.00 38 1012.8
20260508163723 65 258 12.0 19.0 0.00 0.00 0.00 40 1012.9
20260508163630 65 275 11.0 19.0 0.00 0.00 0.00 39 1012.9
20260508163526 65 285 11.0 19.0 0.00 0.00 0.00 38 1012.8
20260508163434 65 263 12.0 19.0 0.00 0.00 0.00 38 1012.8
20260508163331 65 271 12.0 19.0 0.00 0.00 0.00 39 1012.8
20260508163236 65 275 12.0 19.0 0.00 0.00 0.00 39 1012.7
20260508163134 65 242 12.0 19.0 0.00 0.00 0.00 38 1012.8
20260508163038 65 270 12.0 19.0 0.00 0.00 0.00 38 1012.8
20260508162935 65 250 11.0 18.0 0.00 0.00 0.00 38 1012.8
20260508162902 65 254 11.0 18.0 0.00 0.00 0.00 38 1012.8
20260508162722 65 262 11.0 18.0 0.00 0.00 0.00 38 1012.8
20260508162647 65 263 11.0 18.0 0.00 0.00 0.00 40 1012.8
20260508162523 65 250 9.0 21.0 0.00 0.00 0.00 42 1012.9
20260508162418 65 291 9.0 21.0 0.00 0.00 0.00 42 1012.8
20260508162323 64 272 10.0 21.0 0.00 0.00 0.00 41 1012.8
20260508162220 64 232 10.0 21.0 0.00 0.00 0.00 42 1012.8
20260508162129 64 285 11.0 21.0 0.00 0.00 0.00 42 1012.8
20260508162026 64 250 11.0 21.0 0.00 0.00 0.00 42 1012.9
20260508161930 64 247 11.0 21.0 0.00 0.00 0.00 42 1012.9
20260508161828 64 239 13.0 21.0 0.00 0.00 0.00 42 1012.9
20260508161735 63 253 12.0 21.0 0.00 0.00 0.00 42 1012.9
20260508161634 63 260 11.0 17.0 0.00 0.00 0.00 41 1012.8
20260508161557 63 261 11.0 17.0 0.00 0.00 0.00 43 1012.9
20260508161442 63 262 11.0 17.0 0.00 0.00 0.00 43 1012.9
20260508161339 63 239 9.0 16.0 0.00 0.00 0.00 43 1012.9
20260508161229 63 256 8.0 16.0 0.00 0.00 0.00 44 1012.9
20260508161122 63 269 6.0 12.0 0.00 0.00 0.00 43 1012.8
20260508161029 63 333 7.0 12.0 0.00 0.00 0.00 43 1012.8
20260508160926 63 285 7.0 12.0 0.00 0.00 0.00 43 1012.8
20260508160853 62 240 6.0 9.0 0.00 0.00 0.00 44 1012.9
20260508160759 62 256 6.0 9.0 0.00 0.00 0.00 44 1012.8
20260508160636 62 258 5.0 9.0 0.00 0.00 0.00 44 1012.7
20260508160542 62 266 3.0 11.0 0.00 0.00 0.00 44 1012.7
20260508160441 62 252 2.0 11.0 0.00 0.00 0.00 44 1012.7
20260508160325 62 252 2.0 11.0 0.00 0.00 0.00 44 1012.7
20260508160221 62 252 3.0 11.0 0.00 0.00 0.00 44 1012.7
20260508160129 61 251 5.0 11.0 0.00 0.00 0.00 44 1012.7
20260508160022 61 250 6.0 11.0 0.00 0.00 0.00 44 1012.7
20260508155917 61 227 6.0 11.0 0.00 0.00 0.00 45 1012.7
20260508155823 61 240 6.0 11.0 0.00 0.00 0.00 45 1012.7
20260508155732 61 242 6.0 11.0 0.00 0.00 0.00 45 1012.7
20260508155630 60 262 4.0 7.0 0.00 0.00 0.00 45 1012.7
20260508155525 60 245 4.0 7.0 0.00 0.00 0.00 45 1012.7
20260508155432 60 244 3.0 7.0 0.00 0.00 0.00 45 1012.7
20260508155359 60 244 3.0 7.0 0.00 0.00 0.00 45 1012.7
20260508155216 59 193 3.0 7.0 0.00 0.00 0.00 45 1012.7
20260508155135 59 219 3.0 7.0 0.00 0.00 0.00 45 1012.7
20260508155025 59 219 3.0 7.0 0.00 0.00 0.00 45 1012.7
20260508154940 59 223 4.0 7.0 0.00 0.00 0.00 46 1012.7
20260508154846 59 227 4.0 7.0 0.00 0.00 0.00 47 1012.7
20260508154721 58 229 3.0 7.0 0.00 0.00 0.00 46 1012.7
20260508154629 58 255 2.0 4.0 0.00 0.00 0.00 46 1012.7
20260508154532 58 256 1.0 4.0 0.00 0.00 0.00 47 1012.6
20260508154429 57 256 0.0 4.0 0.00 0.00 0.00 47 1012.7
20260508154356 57 256 1.0 5.0 0.00 0.00 0.00 46 1012.7
20260508154236 57 256 2.0 7.0 0.00 0.00 0.00 46 1012.7
20260508154143 57 256 2.0 7.0 0.00 0.00 0.00 47 1012.7
20260508154039 56 258 2.0 7.0 0.00 0.00 0.00 48 1012.7
20260508153944 56 259 2.0 7.0 0.00 0.00 0.00 47 1012.7
20260508153820 56 259 2.0 7.0 0.00 0.00 0.00 47 1012.7
20260508153749 56 259 1.0 7.0 0.00 0.00 0.00 47 1012.7
20260508153624 56 259 2.0 7.0 0.00 0.00 0.00 47 1012.7
20260508153529 55 259 3.0 7.0 0.00 0.00 0.00 48 1012.7
20260508153456 55 259 3.0 7.0 0.00 0.00 0.00 49 1012.7
20260508153331 55 251 1.0 5.0 0.00 0.00 0.00 48 1012.6
20260508153237 55 251 1.0 5.0 0.00 0.00 0.00 48 1012.6
20260508153143 55 251 1.0 5.0 0.00 0.00 0.00 47 1012.6
20260508153019 54 251 2.0 5.0 0.00 0.00 0.00 48 1012.6
20260508152915 54 251 2.0 5.0 0.00 0.00 0.00 49 1012.6
20260508152842 54 251 3.0 5.0 0.00 0.00 0.00 49 1012.6
20260508152725 54 251 3.0 5.0 0.00 0.00 0.00 49 1012.6
20260508152620 54 251 3.0 5.0 0.00 0.00 0.00 50 1012.6
20260508152545 53 284 2.0 6.0 0.00 0.00 0.00 50 1012.6
20260508152420 53 284 1.0 6.0 0.00 0.00 0.00 50 1012.5
20260508152327 53 284 0.0 6.0 0.00 0.00 0.00 49 1012.5
20260508152225 53 284 0.0 6.0 0.00 0.00 0.00 50 1012.5
20260508152152 53 284 1.0 6.0 0.00 0.00 0.00 49 1012.5
20260508152028 53 284 3.0 6.0 0.00 0.00 0.00 49 1012.5
20260508151939 53 284 3.0 6.0 0.00 0.00 0.00 50 1012.6
20260508151905 52 284 2.0 6.0 0.00 0.00 0.00 50 1012.6
20260508151720 52 283 1.0 6.0 0.00 0.00 0.00 50 1012.5
20260508151624 52 283 1.0 6.0 0.00 0.00 0.00 50 1012.4
20260508151521 52 283 2.0 6.0 0.00 0.00 0.00 50 1012.5
20260508151418 52 283 3.0 6.0 0.00 0.00 0.00 50 1012.6
20260508151344 52 283 3.0 6.0 0.00 0.00 0.00 50 1012.5
20260508151233 51 283 1.0 3.0 0.00 0.00 0.00 51 1012.5
20260508151130 51 283 0.0 3.0 0.00 0.00 0.00 51 1012.5
20260508151023 51 283 0.0 3.0 0.00 0.00 0.00 51 1012.5
20260508150950 51 283 1.0 3.0 0.00 0.00 0.00 52 1012.5
20260508150835 51 283 1.0 3.0 0.00 0.00 0.00 52 1012.6
20260508150751 51 283 2.0 3.0 0.00 0.00 0.00 53 1012.6
20260508150637 51 283 2.0 3.0 0.00 0.00 0.00 53 1012.5
20260508150602 51 283 1.0 4.0 0.00 0.00 0.00 53 1012.4
20260508150335 50 285 0.0 4.0 0.00 0.00 0.00 53 1012.5
20260508150232 50 285 0.0 4.0 0.00 0.00 0.00 53 1012.4
20260508150136 50 285 0.0 4.0 0.00 0.00 0.00 53 1012.5
20260508150040 50 285 0.0 6.0 0.00 0.00 0.00 53 1012.5
20260508145917 50 285 1.0 6.0 0.00 0.00 0.00 52 1012.4
20260508145834 50 285 1.0 6.0 0.00 0.00 0.00 52 1012.4
20260508145741 50 285 2.0 6.0 0.00 0.00 0.00 52 1012.4
20260508145619 50 286 2.0 6.0 0.00 0.00 0.00 52 1012.4
20260508145546 50 286 2.0 6.0 0.00 0.00 0.00 52 1012.4
20260508145441 50 287 2.0 6.0 0.00 0.00 0.00 52 1012.4
20260508145318 50 287 4.0 6.0 0.00 0.00 0.00 52 1012.4
20260508145225 50 286 4.0 6.0 0.00 0.00 0.00 52 1012.4
20260508145120 50 240 2.0 8.0 0.00 0.00 0.00 52 1012.3
20260508145025 50 191 2.0 8.0 0.00 0.00 0.00 52 1012.3
20260508144927 50 187 3.0 8.0 0.00 0.00 0.00 52 1012.3
20260508144833 49 187 2.0 8.0 0.00 0.00 0.00 52 1012.3
20260508144728 49 188 1.0 8.0 0.00 0.00 0.00 52 1012.3
20260508144633 49 188 2.0 8.0 0.00 0.00 0.00 53 1012.4
20260508144529 49 188 4.0 8.0 0.00 0.00 0.00 53 1012.4
20260508144436 49 188 4.0 8.0 0.00 0.00 0.00 53 1012.3
20260508144317 49 142 2.0 8.0 0.00 0.00 0.00 53 1012.4
20260508144245 49 218 1.0 3.0 0.00 0.00 0.00 53 1012.4
20260508144118 49 219 1.0 4.0 0.00 0.00 0.00 53 1012.4
20260508144035 49 219 2.0 7.0 0.00 0.00 0.00 53 1012.4
20260508143939 49 219 2.0 7.0 0.00 0.00 0.00 53 1012.4
20260508143817 49 218 1.0 7.0 0.00 0.00 0.00 53 1012.3
20260508143734 49 218 1.0 7.0 0.00 0.00 0.00 53 1012.3
20260508143623 49 218 1.0 9.0 0.00 0.00 0.00 53 1012.3
20260508143517 49 218 2.0 9.0 0.00 0.00 0.00 53 1012.4
20260508143416 49 218 2.0 9.0 0.00 0.00 0.00 53 1012.4
20260508143323 49 218 3.0 9.0 0.00 0.00 0.00 53 1012.3
20260508143221 49 218 3.0 13.0 0.00 0.00 0.00 53 1012.3
20260508143148 48 218 3.0 13.0 0.00 0.00 0.00 53 1012.3
20260508143050 48 210 4.0 13.0 0.00 0.00 0.00 53 1012.3
20260508142828 48 169 5.0 13.0 0.00 0.00 0.00 54 1012.2
20260508142725 48 159 5.0 13.0 0.00 0.00 0.00 54 1012.2
20260508142631 48 157 7.0 13.0 0.00 0.00 0.00 54 1012.2
20260508142527 48 163 7.0 13.0 0.00 0.00 0.00 54 1012.2
20260508142454 48 160 6.0 13.0 0.00 0.00 0.00 54 1012.2
20260508142331 47 177 5.0 13.0 0.00 0.00 0.00 55 1012.2
20260508142240 47 175 4.0 11.0 0.00 0.00 0.00 55 1012.3
20260508142139 47 158 3.0 11.0 0.00 0.00 0.00 56 1012.2
20260508142044 47 192 3.0 11.0 0.00 0.00 0.00 56 1012.2
20260508141922 47 193 3.0 11.0 0.00 0.00 0.00 57 1012.3
20260508141818 47 194 3.0 11.0 0.00 0.00 0.00 57 1012.3
20260508141744 47 194 3.0 11.0 0.00 0.00 0.00 57 1012.3
20260508141630 47 194 5.0 11.0 0.00 0.00 0.00 57 1012.3
20260508141553 47 130 5.0 11.0 0.00 0.00 0.00 57 1012.2
20260508141448 47 148 3.0 10.0 0.00 0.00 0.00 57 1012.2
20260508141337 46 175 3.0 10.0 0.00 0.00 0.00 57 1012.2
20260508141244 46 175 3.0 10.0 0.00 0.00 0.00 57 1012.2
20260508141119 46 175 3.0 11.0 0.00 0.00 0.00 58 1012.2
20260508141037 46 175 5.0 11.0 0.00 0.00 0.00 58 1012.2
20260508140922 46 173 6.0 11.0 0.00 0.00 0.00 58 1012.2
20260508140827 46 155 5.0 11.0 0.00 0.00 0.00 59 1012.2
20260508140723 46 165 5.0 11.0 0.00 0.00 0.00 59 1012.2
20260508140618 46 149 6.0 11.0 0.00 0.00 0.00 59 1012.2
20260508140528 46 170 5.0 11.0 0.00 0.00 0.00 59 1012.2
20260508140426 46 138 5.0 11.0 0.00 0.00 0.00 59 1012.2
20260508140333 46 136 5.0 11.0 0.00 0.00 0.00 59 1012.2
20260508140230 45 152 6.0 9.0 0.00 0.00 0.00 59 1012.2
20260508140125 45 153 5.0 9.0 0.00 0.00 0.00 59 1012.1
20260508140030 45 131 4.0 9.0 0.00 0.00 0.00 59 1012.1
20260508135931 45 163 4.0 9.0 0.00 0.00 0.00 60 1012.2
20260508135838 45 163 5.0 9.0 0.00 0.00 0.00 60 1012.2
20260508135734 45 176 5.0 9.0 0.00 0.00 0.00 60 1012.2
20260508135616 45 179 5.0 9.0 0.00 0.00 0.00 60 1012.2
20260508135541 45 179 4.0 9.0 0.00 0.00 0.00 60 1012.2
20260508135418 45 137 3.0 9.0 0.00 0.00 0.00 60 1012.1
20260508135316 45 141 5.0 9.0 0.00 0.00 0.00 60 1012.1
20260508135227 45 129 5.0 9.0 0.00 0.00 0.00 60 1012.1
20260508135120 45 139 3.0 8.0 0.00 0.00 0.00 60 1012.1
20260508135024 45 136 2.0 8.0 0.00 0.00 0.00 60 1012.1
20260508134921 45 138 4.0 8.0 0.00 0.00 0.00 60 1012.1
20260508134827 45 136 4.0 8.0 0.00 0.00 0.00 60 1012.1
20260508134742 45 146 3.0 5.0 0.00 0.00 0.00 60 1012.1
20260508134625 45 146 3.0 5.0 0.00 0.00 0.00 60 1012.1
20260508134530 45 146 2.0 5.0 0.00 0.00 0.00 60 1012.0
20260508134445 44 154 1.0 5.0 0.00 0.00 0.00 60 1012.0
20260508134335 44 154 0.0 5.0 0.00 0.00 0.00 60 1012.0
20260508134232 44 154 0.0 7.0 0.00 0.00 0.00 60 1012.1
20260508134139 44 154 0.0 7.0 0.00 0.00 0.00 60 1012.1
20260508134015 44 154 0.0 7.0 0.00 0.00 0.00 60 1012.1
20260508133931 44 154 1.0 7.0 0.00 0.00 0.00 60 1012.1
20260508133855 44 154 2.0 7.0 0.00 0.00 0.00 60 1012.1
20260508133740 44 154 2.0 7.0 0.00 0.00 0.00 60 1012.0
20260508133618 44 125 3.0 7.0 0.00 0.00 0.00 60 1012.0
20260508133535 44 125 4.0 7.0 0.00 0.00 0.00 60 1012.0
20260508133439 44 123 4.0 7.0 0.00 0.00 0.00 60 1012.0
20260508133406 44 125 4.0 7.0 0.00 0.00 0.00 60 1012.1
20260508133221 44 210 3.0 5.0 0.00 0.00 0.00 60 1012.0
20260508133115 44 247 2.0 4.0 0.00 0.00 0.00 60 1012.0
20260508133022 44 248 1.0 3.0 0.00 0.00 0.00 60 1011.9
20260508132931 44 248 1.0 3.0 0.00 0.00 0.00 60 1011.9
20260508132824 44 248 0.0 3.0 0.00 0.00 0.00 60 1012.0
20260508132722 44 248 1.0 3.0 0.00 0.00 0.00 60 1011.9
20260508132630 44 248 1.0 3.0 0.00 0.00 0.00 60 1011.9
20260508132525 44 248 1.0 3.0 0.00 0.00 0.00 60 1012.0
20260508132431 44 248 0.0 1.0 0.00 0.00 0.00 60 1012.0
20260508132327 44 248 0.0 3.0 0.00 0.00 0.00 60 1012.0
20260508132255 44 248 0.0 3.0 0.00 0.00 0.00 60 1011.9
20260508132133 44 248 0.0 3.0 0.00 0.00 0.00 60 1011.9
20260508132037 44 248 0.0 3.0 0.00 0.00 0.00 59 1012.0
20260508131933 44 248 0.0 3.0 0.00 0.00 0.00 59 1012.0
20260508131831 44 248 0.0 3.0 0.00 0.00 0.00 59 1012.0
20260508131720 44 248 0.0 3.0 0.00 0.00 0.00 59 1012.0
20260508131618 44 248 0.0 3.0 0.00 0.00 0.00 59 1012.1
20260508131544 44 248 1.0 3.0 0.00 0.00 0.00 59 1012.1
20260508131422 44 253 0.0 3.0 0.00 0.00 0.00 59 1011.9
20260508131349 44 253 0.0 3.0 0.00 0.00 0.00 59 1011.9
20260508131246 44 253 0.0 3.0 0.00 0.00 0.00 59 1011.9
20260508131131 44 253 1.0 3.0 0.00 0.00 0.00 59 1011.9
20260508131025 45 253 1.0 3.0 0.00 0.00 0.00 59 1011.9
20260508130930 45 253 0.0 3.0 0.00 0.00 0.00 59 1011.9
20260508130831 45 253 1.0 4.0 0.00 0.00 0.00 59 1011.9
20260508130758 45 253 1.0 7.0 0.00 0.00 0.00 59 1011.9
20260508130635 45 253 1.0 7.0 0.00 0.00 0.00 59 1011.9
20260508130538 45 253 1.0 7.0 0.00 0.00 0.00 59 1011.8
20260508130432 45 253 1.0 7.0 0.00 0.00 0.00 59 1011.9
20260508130330 45 254 1.0 8.0 0.00 0.00 0.00 59 1011.9
20260508130238 45 254 1.0 8.0 0.00 0.00 0.00 59 1011.8
20260508130137 45 254 2.0 8.0 0.00 0.00 0.00 59 1011.9
20260508130022 45 255 3.0 8.0 0.00 0.00 0.00 59 1012.0
20260508125919 45 255 4.0 8.0 0.00 0.00 0.00 59 1011.9
20260508125824 45 173 3.0 8.0 0.00 0.00 0.00 59 1011.9
20260508125720 45 148 4.0 8.0 0.00 0.00 0.00 59 1011.8
20260508125629 45 148 5.0 8.0 0.00 0.00 0.00 59 1011.8
20260508125524 45 143 5.0 8.0 0.00 0.00 0.00 59 1011.7
20260508125454 45 140 3.0 8.0 0.00 0.00 0.00 58 1011.7
20260508125330 45 163 1.0 5.0 0.00 0.00 0.00 58 1011.7
20260508125215 45 163 0.0 5.0 0.00 0.00 0.00 58 1011.7
20260508125135 45 163 1.0 5.0 0.00 0.00 0.00 58 1011.7
20260508125038 45 163 2.0 5.0 0.00 0.00 0.00 58 1011.8
20260508124935 45 163 1.0 9.0 0.00 0.00 0.00 58 1011.7
20260508124819 45 163 0.0 9.0 0.00 0.00 0.00 58 1011.7
20260508124722 45 163 0.0 9.0 0.00 0.00 0.00 58 1011.7
20260508124616 45 163 1.0 9.0 0.00 0.00 0.00 58 1011.7
20260508124523 45 163 1.0 9.0 0.00 0.00 0.00 58 1011.7
20260508124419 45 163 2.0 9.0 0.00 0.00 0.00 58 1011.7
20260508124325 45 163 3.0 9.0 0.00 0.00 0.00 58 1011.7
20260508124222 45 163 4.0 9.0 0.00 0.00 0.00 58 1011.6
20260508124129 45 163 4.0 9.0 0.00 0.00 0.00 58 1011.6
20260508124028 45 163 5.0 9.0 0.00 0.00 0.00 58 1011.6
20260508123934 45 159 6.0 8.0 0.00 0.00 0.00 58 1011.6
20260508123902 45 163 4.0 8.0 0.00 0.00 0.00 57 1011.6
20260508123737 45 169 3.0 8.0 0.00 0.00 0.00 57 1011.6
20260508123705 45 172 3.0 8.0 0.00 0.00 0.00 57 1011.6
20260508123540 45 173 4.0 8.0 0.00 0.00 0.00 57 1011.5
20260508123444 45 172 4.0 8.0 0.00 0.00 0.00 57 1011.6
20260508123320 45 173 5.0 8.0 0.00 0.00 0.00 57 1011.5
20260508123249 45 175 5.0 8.0 0.00 0.00 0.00 57 1011.5
20260508123125 45 151 6.0 8.0 0.00 0.00 0.00 57 1011.6
20260508123031 45 162 5.0 8.0 0.00 0.00 0.00 57 1011.6
20260508122958 45 175 4.0 8.0 0.00 0.00 0.00 56 1011.6
20260508122855 45 184 3.0 6.0 0.00 0.00 0.00 56 1011.6
20260508122742 45 163 1.0 6.0 0.00 0.00 0.00 56 1011.5
20260508122616 45 163 1.0 6.0 0.00 0.00 0.00 56 1011.5
20260508122522 45 162 1.0 6.0 0.00 0.00 0.00 56 1011.4
20260508122420 45 161 2.0 6.0 0.00 0.00 0.00 56 1011.4
20260508122318 45 161 3.0 5.0 0.00 0.00 0.00 55 1011.4
20260508122225 45 159 2.0 6.0 0.00 0.00 0.00 55 1011.4
20260508122121 45 158 1.0 6.0 0.00 0.00 0.00 55 1011.4
20260508122027 45 158 1.0 6.0 0.00 0.00 0.00 55 1011.4
20260508121925 45 158 0.0 6.0 0.00 0.00 0.00 55 1011.4
20260508121831 45 158 1.0 6.0 0.00 0.00 0.00 55 1011.4
20260508121731 45 158 2.0 6.0 0.00 0.00 0.00 55 1011.4
20260508121658 45 159 3.0 6.0 0.00 0.00 0.00 55 1011.3
20260508121540 45 158 3.0 6.0 0.00 0.00 0.00 55 1011.4
20260508121415 45 158 3.0 6.0 0.00 0.00 0.00 55 1011.3
20260508121330 45 158 3.0 5.0 0.00 0.00 0.00 55 1011.3
20260508121237 45 157 1.0 4.0 0.00 0.00 0.00 55 1011.4
20260508121136 46 157 0.0 5.0 0.00 0.00 0.00 55 1011.4
20260508121023 46 157 1.0 5.0 0.00 0.00 0.00 55 1011.4
20260508120919 46 157 1.0 5.0 0.00 0.00 0.00 55 1011.4
20260508120824 46 156 1.0 5.0 0.00 0.00 0.00 55 1011.4
20260508120751 46 156 1.0 5.0 0.00 0.00 0.00 55 1011.4
20260508120624 46 156 2.0 5.0 0.00 0.00 0.00 55 1011.5
20260508120530 46 156 2.0 5.0 0.00 0.00 0.00 55 1011.5
20260508120427 46 156 3.0 5.0 0.00 0.00 0.00 55 1011.4
20260508120335 46 156 2.0 5.0 0.00 0.00 0.00 55 1011.4
20260508120253 46 156 2.0 5.0 0.00 0.00 0.00 55 1011.5
20260508120139 46 155 2.0 8.0 0.00 0.00 0.00 55 1011.4
20260508120044 46 155 2.0 8.0 0.00 0.00 0.00 55 1011.4
20260508115920 46 155 2.0 8.0 0.00 0.00 0.00 55 1011.4
20260508115816 46 155 3.0 8.0 0.00 0.00 0.00 55 1011.4
20260508115741 46 155 2.0 8.0 0.00 0.00 0.00 55 1011.4
20260508115640 46 156 2.0 8.0 0.00 0.00 0.00 55 1011.5
20260508115605 46 152 3.0 8.0 0.00 0.00 0.00 55 1011.5
20260508115444 46 152 4.0 8.0 0.00 0.00 0.00 55 1011.4
20260508115329 46 152 5.0 8.0 0.00 0.00 0.00 55 1011.4
20260508115247 46 183 4.0 5.0 0.00 0.00 0.00 55 1011.4
20260508115133 46 184 3.0 5.0 0.00 0.00 0.00 55 1011.4
20260508115058 46 184 4.0 5.0 0.00 0.00 0.00 55 1011.4
20260508114933 46 184 3.0 5.0 0.00 0.00 0.00 55 1011.4
20260508114839 46 185 3.0 4.0 0.00 0.00 0.00 55 1011.4
20260508114718 46 185 2.0 4.0 0.00 0.00 0.00 55 1011.4
20260508114617 46 185 2.0 4.0 0.00 0.00 0.00 55 1011.4
20260508114524 46 185 3.0 4.0 0.00 0.00 0.00 55 1011.4
20260508114420 46 185 3.0 4.0 0.00 0.00 0.00 55 1011.4
20260508114327 46 188 2.0 4.0 0.00 0.00 0.00 55 1011.4
20260508114224 47 188 2.0 4.0 0.00 0.00 0.00 55 1011.4
20260508114119 47 188 2.0 4.0 0.00 0.00 0.00 55 1011.4
20260508114030 47 188 2.0 4.0 0.00 0.00 0.00 55 1011.4
20260508113927 47 188 2.0 4.0 0.00 0.00 0.00 54 1011.4
20260508113830 47 188 2.0 4.0 0.00 0.00 0.00 54 1011.3
20260508113729 47 188 2.0 4.0 0.00 0.00 0.00 54 1011.3
20260508113623 47 188 2.0 4.0 0.00 0.00 0.00 54 1011.4
20260508113530 47 188 2.0 4.0 0.00 0.00 0.00 53 1011.4
20260508113428 47 188 2.0 4.0 0.00 0.00 0.00 53 1011.4
20260508113338 47 188 2.0 4.0 0.00 0.00 0.00 53 1011.4
20260508113255 47 188 2.0 4.0 0.00 0.00 0.00 53 1011.4
20260508113142 47 188 2.0 4.0 0.00 0.00 0.00 53 1011.4